| time (UTC) | temp C | wind direction | speed KPH | gust KPH | rain 1hr cm | rain 24hr cm | rain mn cm | humidity % | barometer mb |
| 20260509101637 | 13 | 117 | 8.0 | 22.5 | 0.00 | 0.00 | 0.00 | 77 | 1003.0 |
| 20260509101544 | 13 | 284 | 11.3 | 22.5 | 0.00 | 0.00 | 0.00 | 77 | 1003.0 |
| 20260509101433 | 13 | 233 | 8.0 | 24.1 | 0.00 | 0.00 | 0.00 | 77 | 1003.0 |
| 20260509101326 | 13 | 185 | 8.0 | 24.1 | 0.00 | 0.00 | 0.00 | 77 | 1003.0 |
| 20260509101236 | 13 | 204 | 8.0 | 24.1 | 0.00 | 0.00 | 0.00 | 77 | 1003.0 |
| 20260509101147 | 13 | 162 | 9.7 | 24.1 | 0.00 | 0.00 | 0.00 | 77 | 1003.0 |
| 20260509101059 | 13 | 190 | 9.7 | 24.1 | 0.00 | 0.00 | 0.00 | 77 | 1003.0 |
| 20260509100932 | 13 | 221 | 4.8 | 24.1 | 0.00 | 0.00 | 0.00 | 77 | 1003.0 |
| 20260509100844 | 13 | 204 | 4.8 | 24.1 | 0.00 | 0.00 | 0.00 | 77 | 1003.0 |
| 20260509100755 | 13 | 324 | 9.7 | 24.1 | 0.00 | 0.00 | 0.00 | 77 | 1003.0 |
| 20260509100625 | 13 | 174 | 8.0 | 24.1 | 0.00 | 0.00 | 0.00 | 77 | 1003.0 |
| 20260509100531 | 13 | 171 | 6.4 | 19.3 | 0.00 | 0.00 | 0.00 | 77 | 1002.9 |
| 20260509100442 | 13 | 236 | 8.0 | 20.9 | 0.00 | 0.00 | 0.00 | 77 | 1002.9 |
| 20260509100332 | 13 | 228 | 8.0 | 25.7 | 0.00 | 0.00 | 0.00 | 77 | 1002.9 |
| 20260509100244 | 13 | 161 | 6.4 | 25.7 | 0.00 | 0.00 | 0.00 | 77 | 1003.0 |
| 20260509100134 | 13 | 190 | 4.8 | 25.7 | 0.00 | 0.00 | 0.00 | 78 | 1002.9 |
| 20260509100039 | 13 | 221 | 6.4 | 25.7 | 0.00 | 0.00 | 0.00 | 78 | 1002.9 |
| 20260509095933 | 13 | 247 | 6.4 | 25.7 | 0.00 | 0.00 | 0.00 | 78 | 1002.9 |
| 20260509095824 | 13 | 235 | 8.0 | 25.7 | 0.00 | 0.00 | 0.00 | 78 | 1002.9 |
| 20260509095735 | 13 | 184 | 9.7 | 25.7 | 0.00 | 0.00 | 0.00 | 78 | 1003.0 |
| 20260509095625 | 13 | 191 | 11.3 | 25.7 | 0.00 | 0.00 | 0.00 | 78 | 1003.0 |
| 20260509095530 | 13 | 191 | 8.0 | 24.1 | 0.00 | 0.00 | 0.00 | 78 | 1003.1 |
| 20260509095442 | 13 | 255 | 4.8 | 22.5 | 0.00 | 0.00 | 0.00 | 78 | 1003.2 |
| 20260509095333 | 13 | 231 | 6.4 | 22.5 | 0.00 | 0.00 | 0.00 | 78 | 1003.1 |
| 20260509095224 | 13 | 231 | 6.4 | 22.5 | 0.00 | 0.00 | 0.00 | 78 | 1003.2 |
| 20260509095139 | 13 | 223 | 6.4 | 22.5 | 0.00 | 0.00 | 0.00 | 78 | 1003.3 |
| 20260509095025 | 13 | 198 | 9.7 | 22.5 | 0.00 | 0.00 | 0.00 | 78 | 1003.3 |
| 20260509094939 | 13 | 136 | 9.7 | 22.5 | 0.00 | 0.00 | 0.00 | 78 | 1003.3 |
| 20260509094831 | 13 | 212 | 8.0 | 22.5 | 0.00 | 0.00 | 0.00 | 78 | 1003.4 |
| 20260509094742 | 13 | 237 | 8.0 | 17.7 | 0.00 | 0.00 | 0.00 | 78 | 1003.3 |
| 20260509094633 | 13 | 144 | 9.7 | 17.7 | 0.00 | 0.00 | 0.00 | 79 | 1003.4 |
| 20260509094540 | 13 | 210 | 8.0 | 17.7 | 0.00 | 0.00 | 0.00 | 79 | 1003.3 |
| 20260509094432 | 13 | 156 | 9.7 | 17.7 | 0.00 | 0.00 | 0.00 | 79 | 1003.3 |
| 20260509094327 | 13 | 238 | 11.3 | 17.7 | 0.00 | 0.00 | 0.00 | 79 | 1003.3 |
| 20260509094238 | 13 | 210 | 11.3 | 19.3 | 0.00 | 0.00 | 0.00 | 79 | 1003.4 |
| 20260509094130 | 13 | 219 | 6.4 | 19.3 | 0.00 | 0.00 | 0.00 | 79 | 1003.4 |
| 20260509094037 | 12 | 219 | 4.8 | 19.3 | 0.00 | 0.00 | 0.00 | 79 | 1003.3 |
| 20260509093948 | 13 | 215 | 4.8 | 19.3 | 0.00 | 0.00 | 0.00 | 79 | 1003.3 |
| 20260509093838 | 13 | 216 | 6.4 | 19.3 | 0.00 | 0.00 | 0.00 | 79 | 1003.4 |
| 20260509093750 | 13 | 207 | 8.0 | 19.3 | 0.00 | 0.00 | 0.00 | 79 | 1003.4 |
| 20260509093640 | 13 | 73 | 8.0 | 19.3 | 0.00 | 0.00 | 0.00 | 79 | 1003.3 |
| 20260509093526 | 13 | 179 | 9.7 | 19.3 | 0.00 | 0.00 | 0.00 | 79 | 1003.4 |
| 20260509093436 | 12 | 240 | 9.7 | 19.3 | 0.00 | 0.00 | 0.00 | 79 | 1003.4 |
| 20260509093331 | 12 | 222 | 6.4 | 19.3 | 0.00 | 0.00 | 0.00 | 79 | 1003.4 |
| 20260509093242 | 12 | 244 | 6.4 | 19.3 | 0.00 | 0.00 | 0.00 | 79 | 1003.3 |
| 20260509093131 | 12 | 220 | 8.0 | 19.3 | 0.00 | 0.00 | 0.00 | 79 | 1003.4 |
| 20260509093038 | 12 | 206 | 9.7 | 19.3 | 0.00 | 0.00 | 0.00 | 79 | 1003.4 |
| 20260509092947 | 12 | 226 | 6.4 | 17.7 | 0.00 | 0.00 | 0.00 | 79 | 1003.4 |
| 20260509092837 | 12 | 173 | 6.4 | 17.7 | 0.00 | 0.00 | 0.00 | 79 | 1003.4 |
| 20260509092726 | 12 | 187 | 8.0 | 17.7 | 0.00 | 0.00 | 0.00 | 79 | 1003.4 |
| 20260509092638 | 12 | 250 | 8.0 | 17.7 | 0.00 | 0.00 | 0.00 | 79 | 1003.4 |
| 20260509092544 | 12 | 188 | 6.4 | 16.1 | 0.00 | 0.00 | 0.00 | 79 | 1003.3 |
| 20260509092434 | 12 | 249 | 8.0 | 16.1 | 0.00 | 0.00 | 0.00 | 79 | 1003.4 |
| 20260509092348 | 12 | 129 | 8.0 | 16.1 | 0.00 | 0.00 | 0.00 | 79 | 1003.3 |
| 20260509092238 | 12 | 215 | 6.4 | 16.1 | 0.00 | 0.00 | 0.00 | 79 | 1003.4 |
| 20260509092130 | 12 | 186 | 6.4 | 14.5 | 0.00 | 0.00 | 0.00 | 79 | 1003.4 |
| 20260509092036 | 12 | 237 | 6.4 | 17.7 | 0.00 | 0.00 | 0.00 | 79 | 1003.4 |
| 20260509091928 | 12 | 275 | 4.8 | 17.7 | 0.00 | 0.00 | 0.00 | 79 | 1003.4 |
| 20260509091839 | 12 | 198 | 4.8 | 17.7 | 0.00 | 0.00 | 0.00 | 79 | 1003.4 |
| 20260509091752 | 13 | 172 | 4.8 | 17.7 | 0.00 | 0.00 | 0.00 | 79 | 1003.4 |
| 20260509091703 | 13 | 149 | 4.8 | 19.3 | 0.00 | 0.00 | 0.00 | 78 | 1003.4 |
| 20260509091556 | 13 | 224 | 3.2 | 19.3 | 0.00 | 0.00 | 0.00 | 78 | 1003.4 |
| 20260509091441 | 13 | 159 | 3.2 | 19.3 | 0.00 | 0.00 | 0.00 | 78 | 1003.4 |
| 20260509091352 | 13 | 167 | 6.4 | 19.3 | 0.00 | 0.00 | 0.00 | 78 | 1003.4 |
| 20260509091226 | 13 | 140 | 6.4 | 19.3 | 0.00 | 0.00 | 0.00 | 78 | 1003.4 |
| 20260509091138 | 13 | 195 | 4.8 | 19.3 | 0.00 | 0.00 | 0.00 | 78 | 1003.4 |
| 20260509091025 | 13 | 211 | 8.0 | 19.3 | 0.00 | 0.00 | 0.00 | 78 | 1003.4 |
| 20260509090937 | 13 | 165 | 9.7 | 19.3 | 0.00 | 0.00 | 0.00 | 78 | 1003.3 |
| 20260509090829 | 13 | 167 | 11.3 | 19.3 | 0.00 | 0.00 | 0.00 | 78 | 1003.3 |
| 20260509090741 | 13 | 199 | 8.0 | 19.3 | 0.00 | 0.00 | 0.00 | 78 | 1003.3 |
| 20260509090632 | 13 | 216 | 6.4 | 16.1 | 0.00 | 0.00 | 0.00 | 78 | 1003.4 |
| 20260509090538 | 13 | 166 | 4.8 | 16.1 | 0.00 | 0.00 | 0.00 | 78 | 1003.4 |
| 20260509090434 | 13 | 221 | 4.8 | 12.9 | 0.00 | 0.00 | 0.00 | 78 | 1003.4 |
| 20260509090346 | 13 | 158 | 4.8 | 12.9 | 0.00 | 0.00 | 0.00 | 78 | 1003.4 |
| 20260509090258 | 13 | 221 | 4.8 | 12.9 | 0.00 | 0.00 | 0.00 | 78 | 1003.5 |
| 20260509090148 | 13 | 216 | 4.8 | 12.9 | 0.00 | 0.00 | 0.00 | 78 | 1003.5 |
| 20260509090055 | 13 | 209 | 4.8 | 12.9 | 0.00 | 0.00 | 0.00 | 78 | 1003.5 |
| 20260509085925 | 13 | 120 | 6.4 | 20.9 | 0.00 | 0.00 | 0.00 | 78 | 1003.5 |
| 20260509085835 | 13 | 165 | 6.4 | 20.9 | 0.00 | 0.00 | 0.00 | 78 | 1003.6 |
| 20260509085744 | 13 | 124 | 4.8 | 20.9 | 0.00 | 0.00 | 0.00 | 78 | 1003.4 |
| 20260509085656 | 13 | 195 | 6.4 | 20.9 | 0.00 | 0.00 | 0.00 | 78 | 1003.4 |
| 20260509085607 | 13 | 232 | 8.0 | 20.9 | 0.00 | 0.00 | 0.00 | 78 | 1003.4 |
| 20260509085456 | 13 | 176 | 8.0 | 20.9 | 0.00 | 0.00 | 0.00 | 78 | 1003.5 |
| 20260509085347 | 13 | 211 | 8.0 | 20.9 | 0.00 | 0.00 | 0.00 | 78 | 1003.4 |
| 20260509085240 | 13 | 221 | 9.7 | 20.9 | 0.00 | 0.00 | 0.00 | 78 | 1003.4 |
| 20260509085154 | 13 | 223 | 6.4 | 20.9 | 0.00 | 0.00 | 0.00 | 78 | 1003.4 |
| 20260509085059 | 13 | 218 | 3.2 | 17.7 | 0.00 | 0.00 | 0.00 | 78 | 1003.5 |
| 20260509084929 | 13 | 214 | 4.8 | 17.7 | 0.00 | 0.00 | 0.00 | 78 | 1003.5 |
| 20260509084842 | 13 | 255 | 6.4 | 17.7 | 0.00 | 0.00 | 0.00 | 78 | 1003.6 |
| 20260509084732 | 13 | 266 | 8.0 | 17.7 | 0.00 | 0.00 | 0.00 | 78 | 1003.6 |
| 20260509084644 | 13 | 236 | 8.0 | 17.7 | 0.00 | 0.00 | 0.00 | 78 | 1003.6 |
| 20260509084549 | 13 | 184 | 8.0 | 17.7 | 0.00 | 0.00 | 0.00 | 78 | 1003.6 |
| 20260509084439 | 13 | 205 | 6.4 | 17.7 | 0.00 | 0.00 | 0.00 | 78 | 1003.6 |
| 20260509084331 | 13 | 229 | 6.4 | 17.7 | 0.00 | 0.00 | 0.00 | 78 | 1003.6 |
| 20260509084226 | 13 | 213 | 8.0 | 19.3 | 0.00 | 0.00 | 0.00 | 78 | 1003.6 |
| 20260509084137 | 13 | 140 | 9.7 | 19.3 | 0.00 | 0.00 | 0.00 | 78 | 1003.7 |
| 20260509084024 | 13 | 263 | 6.4 | 19.3 | 0.00 | 0.00 | 0.00 | 78 | 1003.7 |
| 20260509083936 | 13 | 264 | 4.8 | 19.3 | 0.00 | 0.00 | 0.00 | 78 | 1003.7 |
| 20260509083847 | 13 | 235 | 4.8 | 19.3 | 0.00 | 0.00 | 0.00 | 78 | 1003.7 |
| 20260509083758 | 13 | 244 | 6.4 | 19.3 | 0.00 | 0.00 | 0.00 | 78 | 1003.6 |
| 20260509083628 | 13 | 207 | 9.7 | 19.3 | 0.00 | 0.00 | 0.00 | 78 | 1003.6 |
| 20260509083533 | 13 | 209 | 9.7 | 19.3 | 0.00 | 0.00 | 0.00 | 78 | 1003.7 |
| 20260509083425 | 13 | 249 | 8.0 | 19.3 | 0.00 | 0.00 | 0.00 | 78 | 1003.7 |
| 20260509083341 | 13 | 172 | 8.0 | 19.3 | 0.00 | 0.00 | 0.00 | 78 | 1003.7 |
| 20260509083232 | 13 | 225 | 6.4 | 17.7 | 0.00 | 0.00 | 0.00 | 78 | 1003.7 |
| 20260509083142 | 13 | 176 | 4.8 | 17.7 | 0.00 | 0.00 | 0.00 | 78 | 1003.8 |
| 20260509083031 | 13 | 231 | 4.8 | 17.7 | 0.00 | 0.00 | 0.00 | 78 | 1003.7 |
| 20260509082942 | 13 | 115 | 4.8 | 17.7 | 0.00 | 0.00 | 0.00 | 78 | 1003.7 |
| 20260509082833 | 13 | 200 | 6.4 | 17.7 | 0.00 | 0.00 | 0.00 | 78 | 1003.7 |
| 20260509082725 | 13 | 217 | 8.0 | 17.7 | 0.00 | 0.00 | 0.00 | 78 | 1003.7 |
| 20260509082637 | 13 | 201 | 4.8 | 16.1 | 0.00 | 0.00 | 0.00 | 78 | 1003.7 |
| 20260509082527 | 13 | 221 | 4.8 | 12.9 | 0.00 | 0.00 | 0.00 | 78 | 1003.7 |
| 20260509082439 | 13 | 209 | 4.8 | 12.9 | 0.00 | 0.00 | 0.00 | 78 | 1003.8 |
| 20260509082328 | 13 | 274 | 4.8 | 12.9 | 0.00 | 0.00 | 0.00 | 78 | 1003.8 |
| 20260509082241 | 13 | 162 | 4.8 | 12.9 | 0.00 | 0.00 | 0.00 | 78 | 1003.8 |
| 20260509082130 | 13 | 190 | 4.8 | 12.9 | 0.00 | 0.00 | 0.00 | 78 | 1003.8 |
| 20260509082036 | 13 | 228 | 3.2 | 12.9 | 0.00 | 0.00 | 0.00 | 78 | 1003.8 |
| 20260509081926 | 13 | 192 | 3.2 | 12.9 | 0.00 | 0.00 | 0.00 | 78 | 1003.7 |
| 20260509081837 | 13 | 188 | 3.2 | 12.9 | 0.00 | 0.00 | 0.00 | 78 | 1003.8 |
| 20260509081750 | 13 | 290 | 4.8 | 12.9 | 0.00 | 0.00 | 0.00 | 78 | 1003.8 |
| 20260509081638 | 13 | 290 | 6.4 | 12.9 | 0.00 | 0.00 | 0.00 | 78 | 1003.8 |
| 20260509081549 | 13 | 187 | 4.8 | 14.5 | 0.00 | 0.00 | 0.00 | 78 | 1003.9 |
| 20260509081438 | 13 | 238 | 3.2 | 14.5 | 0.00 | 0.00 | 0.00 | 78 | 1003.8 |
| 20260509081329 | 13 | 252 | 4.8 | 14.5 | 0.00 | 0.00 | 0.00 | 78 | 1003.8 |
| 20260509081241 | 13 | 227 | 4.8 | 14.5 | 0.00 | 0.00 | 0.00 | 78 | 1003.8 |
| 20260509081131 | 13 | 236 | 3.2 | 14.5 | 0.00 | 0.00 | 0.00 | 78 | 1003.8 |
| 20260509081036 | 13 | 233 | 4.8 | 14.5 | 0.00 | 0.00 | 0.00 | 78 | 1003.8 |
| 20260509080947 | 13 | 243 | 4.8 | 14.5 | 0.00 | 0.00 | 0.00 | 78 | 1003.8 |
| 20260509080858 | 13 | 175 | 4.8 | 16.1 | 0.00 | 0.00 | 0.00 | 78 | 1003.8 |
| 20260509080808 | 13 | 227 | 4.8 | 16.1 | 0.00 | 0.00 | 0.00 | 78 | 1003.8 |
| 20260509080721 | 13 | 144 | 4.8 | 16.1 | 0.00 | 0.00 | 0.00 | 78 | 1004.0 |
| 20260509080631 | 13 | 229 | 3.2 | 16.1 | 0.00 | 0.00 | 0.00 | 78 | 1003.9 |
| 20260509080519 | 13 | 210 | 3.2 | 16.1 | 0.00 | 0.00 | 0.00 | 78 | 1003.9 |
| 20260509080411 | 13 | 219 | 6.4 | 16.1 | 0.00 | 0.00 | 0.00 | 78 | 1004.0 |
| 20260509080300 | 13 | 198 | 4.8 | 16.1 | 0.00 | 0.00 | 0.00 | 78 | 1004.0 |
| 20260509080130 | 13 | 231 | 6.4 | 20.9 | 0.00 | 0.00 | 0.00 | 78 | 1004.0 |
| 20260509080036 | 13 | 189 | 6.4 | 20.9 | 0.00 | 0.00 | 0.00 | 78 | 1003.9 |
| 20260509075950 | 13 | 196 | 4.8 | 20.9 | 0.00 | 0.00 | 0.00 | 78 | 1003.9 |
| 20260509075901 | 13 | 201 | 4.8 | 20.9 | 0.00 | 0.00 | 0.00 | 78 | 1004.1 |
| 20260509075754 | 13 | 266 | 4.8 | 20.9 | 0.00 | 0.00 | 0.00 | 78 | 1004.1 |
| 20260509075705 | 13 | 207 | 4.8 | 20.9 | 0.00 | 0.00 | 0.00 | 78 | 1004.1 |
| 20260509075529 | 13 | 204 | 6.4 | 20.9 | 0.00 | 0.00 | 0.00 | 78 | 1004.0 |
| 20260509075424 | 13 | 230 | 9.7 | 20.9 | 0.00 | 0.00 | 0.00 | 78 | 1004.1 |
| 20260509075336 | 13 | 232 | 9.7 | 20.9 | 0.00 | 0.00 | 0.00 | 78 | 1004.2 |
| 20260509075228 | 13 | 268 | 6.4 | 17.7 | 0.00 | 0.00 | 0.00 | 78 | 1004.0 |
| 20260509075142 | 13 | 194 | 6.4 | 17.7 | 0.00 | 0.00 | 0.00 | 78 | 1004.1 |
| 20260509075027 | 13 | 220 | 8.0 | 17.7 | 0.00 | 0.00 | 0.00 | 78 | 1004.0 |
| 20260509074939 | 13 | 165 | 4.8 | 17.7 | 0.00 | 0.00 | 0.00 | 78 | 1004.1 |
| 20260509074830 | 13 | 231 | 3.2 | 17.7 | 0.00 | 0.00 | 0.00 | 77 | 1004.1 |
| 20260509074742 | 13 | 172 | 4.8 | 19.3 | 0.00 | 0.00 | 0.00 | 77 | 1004.1 |
| 20260509074632 | 13 | 230 | 8.0 | 19.3 | 0.00 | 0.00 | 0.00 | 78 | 1004.1 |
| 20260509074542 | 13 | 246 | 8.0 | 19.3 | 0.00 | 0.00 | 0.00 | 78 | 1004.2 |
| 20260509074454 | 13 | 209 | 6.4 | 19.3 | 0.00 | 0.00 | 0.00 | 77 | 1004.1 |
| 20260509074324 | 13 | 176 | 6.4 | 19.3 | 0.00 | 0.00 | 0.00 | 78 | 1004.0 |
| 20260509074236 | 13 | 205 | 6.4 | 19.3 | 0.00 | 0.00 | 0.00 | 77 | 1004.1 |
| 20260509074127 | 13 | 229 | 6.4 | 19.3 | 0.00 | 0.00 | 0.00 | 77 | 1004.1 |
| 20260509074035 | 13 | 229 | 8.0 | 19.3 | 0.00 | 0.00 | 0.00 | 77 | 1004.1 |
| 20260509073947 | 13 | 183 | 8.0 | 19.3 | 0.00 | 0.00 | 0.00 | 78 | 1004.1 |
| 20260509073857 | 13 | 196 | 6.4 | 12.9 | 0.00 | 0.00 | 0.00 | 77 | 1004.1 |
| 20260509073750 | 13 | 221 | 4.8 | 19.3 | 0.00 | 0.00 | 0.00 | 77 | 1004.1 |
| 20260509073701 | 13 | 256 | 4.8 | 19.3 | 0.00 | 0.00 | 0.00 | 77 | 1004.1 |
| 20260509073546 | 13 | 223 | 6.4 | 19.3 | 0.00 | 0.00 | 0.00 | 77 | 1004.0 |
| 20260509073440 | 13 | 204 | 6.4 | 19.3 | 0.00 | 0.00 | 0.00 | 77 | 1004.1 |
| 20260509073330 | 13 | 199 | 4.8 | 19.3 | 0.00 | 0.00 | 0.00 | 77 | 1004.2 |
| 20260509073242 | 13 | 210 | 4.8 | 19.3 | 0.00 | 0.00 | 0.00 | 77 | 1004.2 |
| 20260509073133 | 13 | 212 | 8.0 | 19.3 | 0.00 | 0.00 | 0.00 | 77 | 1004.2 |
| 20260509073039 | 13 | 173 | 9.7 | 19.3 | 0.00 | 0.00 | 0.00 | 77 | 1004.2 |
| 20260509072952 | 13 | 232 | 8.0 | 19.3 | 0.00 | 0.00 | 0.00 | 77 | 1004.2 |
| 20260509072903 | 13 | 172 | 8.0 | 16.1 | 0.00 | 0.00 | 0.00 | 77 | 1004.2 |
| 20260509072732 | 13 | 127 | 8.0 | 16.1 | 0.00 | 0.00 | 0.00 | 77 | 1004.3 |
| 20260509072642 | 13 | 200 | 8.0 | 16.1 | 0.00 | 0.00 | 0.00 | 77 | 1004.3 |
| 20260509072532 | 13 | 212 | 6.4 | 16.1 | 0.00 | 0.00 | 0.00 | 77 | 1004.2 |
| 20260509072442 | 13 | 212 | 6.4 | 16.1 | 0.00 | 0.00 | 0.00 | 77 | 1004.4 |
| 20260509072333 | 13 | 259 | 4.8 | 16.1 | 0.00 | 0.00 | 0.00 | 77 | 1004.4 |
| 20260509072225 | 13 | 245 | 4.8 | 16.1 | 0.00 | 0.00 | 0.00 | 77 | 1004.4 |
| 20260509072136 | 13 | 221 | 6.4 | 16.1 | 0.00 | 0.00 | 0.00 | 77 | 1004.3 |
| 20260509072043 | 13 | 44 | 6.4 | 16.1 | 0.00 | 0.00 | 0.00 | 77 | 1004.3 |
| 20260509071934 | 13 | 214 | 4.8 | 16.1 | 0.00 | 0.00 | 0.00 | 77 | 1004.4 |
| 20260509071825 | 13 | 252 | 4.8 | 16.1 | 0.00 | 0.00 | 0.00 | 77 | 1004.4 |
| 20260509071736 | 13 | 215 | 3.2 | 16.1 | 0.00 | 0.00 | 0.00 | 77 | 1004.5 |
| 20260509071654 | 13 | 224 | 3.2 | 16.1 | 0.00 | 0.00 | 0.00 | 77 | 1004.5 |
| 20260509071605 | 13 | 233 | 6.4 | 17.7 | 0.00 | 0.00 | 0.00 | 77 | 1004.5 |
| 20260509071454 | 13 | 267 | 6.4 | 19.3 | 0.00 | 0.00 | 0.00 | 77 | 1004.5 |
| 20260509071344 | 13 | 217 | 8.0 | 19.3 | 0.00 | 0.00 | 0.00 | 77 | 1004.6 |
| 20260509071235 | 13 | 191 | 8.0 | 19.3 | 0.00 | 0.00 | 0.00 | 77 | 1004.6 |
| 20260509071147 | 13 | 200 | 8.0 | 19.3 | 0.00 | 0.00 | 0.00 | 77 | 1004.6 |
| 20260509071054 | 13 | 186 | 9.7 | 19.3 | 0.00 | 0.00 | 0.00 | 77 | 1004.6 |
| 20260509070944 | 13 | 178 | 8.0 | 19.3 | 0.00 | 0.00 | 0.00 | 77 | 1004.7 |
| 20260509070834 | 13 | 212 | 9.7 | 19.3 | 0.00 | 0.00 | 0.00 | 77 | 1004.7 |
| 20260509070725 | 13 | 261 | 9.7 | 19.3 | 0.00 | 0.00 | 0.00 | 77 | 1004.7 |
| 20260509070640 | 13 | 192 | 6.4 | 17.7 | 0.00 | 0.00 | 0.00 | 77 | 1004.7 |
| 20260509070527 | 13 | 82 | 4.8 | 17.7 | 0.00 | 0.00 | 0.00 | 77 | 1004.8 |
| 20260509070437 | 13 | 225 | 4.8 | 17.7 | 0.00 | 0.00 | 0.00 | 77 | 1004.7 |
| 20260509070348 | 13 | 232 | 4.8 | 17.7 | 0.00 | 0.00 | 0.00 | 77 | 1004.7 |
| 20260509070259 | 13 | 221 | 4.8 | 17.7 | 0.00 | 0.00 | 0.00 | 77 | 1004.8 |
| 20260509070148 | 13 | 217 | 8.0 | 17.7 | 0.00 | 0.00 | 0.00 | 77 | 1004.8 |
| 20260509070034 | 13 | 207 | 8.0 | 17.7 | 0.00 | 0.00 | 0.00 | 77 | 1004.9 |
| 20260509065944 | 13 | 246 | 6.4 | 17.7 | 0.00 | 0.00 | 0.00 | 77 | 1004.8 |
| 20260509065835 | 13 | 232 | 8.0 | 16.1 | 0.00 | 0.00 | 0.00 | 77 | 1004.8 |
| 20260509065726 | 13 | 255 | 6.4 | 16.1 | 0.00 | 0.00 | 0.00 | 77 | 1004.9 |
| 20260509065641 | 12 | 191 | 8.0 | 16.1 | 0.00 | 0.00 | 0.00 | 77 | 1004.9 |
| 20260509065526 | 12 | 212 | 6.4 | 14.5 | 0.00 | 0.00 | 0.00 | 77 | 1005.0 |
| 20260509065439 | 12 | 249 | 4.8 | 20.9 | 0.00 | 0.00 | 0.00 | 77 | 1004.9 |
| 20260509065329 | 12 | 245 | 4.8 | 20.9 | 0.00 | 0.00 | 0.00 | 77 | 1005.0 |
| 20260509065242 | 12 | 192 | 4.8 | 20.9 | 0.00 | 0.00 | 0.00 | 77 | 1004.9 |
| 20260509065133 | 12 | 188 | 4.8 | 20.9 | 0.00 | 0.00 | 0.00 | 77 | 1005.0 |
| 20260509065038 | 12 | 203 | 4.8 | 20.9 | 0.00 | 0.00 | 0.00 | 77 | 1005.0 |
| 20260509064930 | 12 | 86 | 4.8 | 20.9 | 0.00 | 0.00 | 0.00 | 77 | 1005.1 |
| 20260509064826 | 12 | 225 | 4.8 | 20.9 | 0.00 | 0.00 | 0.00 | 77 | 1004.9 |
| 20260509064628 | 12 | 217 | 6.4 | 20.9 | 0.00 | 0.00 | 0.00 | 77 | 1005.0 |
| 20260509064535 | 12 | 238 | 6.4 | 17.7 | 0.00 | 0.00 | 0.00 | 78 | 1005.0 |
| 20260509064425 | 12 | 255 | 6.4 | 17.7 | 0.00 | 0.00 | 0.00 | 78 | 1005.0 |
| 20260509064337 | 11 | 198 | 4.8 | 16.1 | 0.00 | 0.00 | 0.00 | 76 | 1005.0 |
| 20260509064251 | 11 | 217 | 3.2 | 8.0 | 0.00 | 0.00 | 0.00 | 76 | 1005.0 |
| 20260509064201 | 11 | 227 | 3.2 | 8.0 | 0.00 | 0.00 | 0.00 | 75 | 1004.9 |
| 20260509064112 | 11 | 172 | 1.6 | 6.4 | 0.00 | 0.00 | 0.00 | 74 | 1005.0 |
| 20260509064018 | 11 | 169 | 3.2 | 4.8 | 0.00 | 0.00 | 0.00 | 74 | 1005.0 |
| 20260509063845 | 11 | 226 | 1.6 | 4.8 | 0.00 | 0.00 | 0.00 | 74 | 1005.0 |
| 20260509063801 | 11 | 239 | 0.0 | 3.2 | 0.00 | 0.00 | 0.00 | 72 | 1005.0 |
| 20260509063629 | 11 | 217 | 1.6 | 3.2 | 0.00 | 0.00 | 0.00 | 73 | 1005.1 |
| 20260509063535 | 11 | 217 | 1.6 | 3.2 | 0.00 | 0.00 | 0.00 | 73 | 1005.1 |
| 20260509063450 | 11 | 255 | 1.6 | 3.2 | 0.00 | 0.00 | 0.00 | 73 | 1005.1 |
| 20260509063400 | 11 | 242 | 0.0 | 3.2 | 0.00 | 0.00 | 0.00 | 71 | 1005.0 |
| 20260509063251 | 11 | 242 | 0.0 | 3.2 | 0.00 | 0.00 | 0.00 | 72 | 1005.0 |
| 20260509063203 | 11 | 245 | 0.0 | 3.2 | 0.00 | 0.00 | 0.00 | 71 | 1005.1 |
| 20260509063028 | 11 | 199 | 0.0 | 3.2 | 0.00 | 0.00 | 0.00 | 71 | 1005.1 |
| 20260509062938 | 11 | 199 | 0.0 | 3.2 | 0.00 | 0.00 | 0.00 | 71 | 1005.0 |
| 20260509062829 | 11 | 199 | 0.0 | 3.2 | 0.00 | 0.00 | 0.00 | 70 | 1005.0 |
| 20260509062745 | 11 | 197 | 1.6 | 3.2 | 0.00 | 0.00 | 0.00 | 70 | 1005.1 |
| 20260509062614 | 11 | 174 | 1.6 | 3.2 | 0.00 | 0.00 | 0.00 | 69 | 1005.0 |
| 20260509062521 | 11 | 225 | 1.6 | 3.2 | 0.00 | 0.00 | 0.00 | 69 | 1005.0 |
| 20260509062412 | 11 | 194 | 1.6 | 3.2 | 0.00 | 0.00 | 0.00 | 68 | 1005.1 |
| 20260509062323 | 11 | 231 | 0.0 | 3.2 | 0.00 | 0.00 | 0.00 | 69 | 1005.0 |
| 20260509062215 | 11 | 177 | 0.0 | 3.2 | 0.00 | 0.00 | 0.00 | 68 | 1005.0 |
| 20260509062105 | 11 | 177 | 0.0 | 3.2 | 0.00 | 0.00 | 0.00 | 67 | 1005.1 |
| 20260509061935 | 11 | 182 | 0.0 | 3.2 | 0.00 | 0.00 | 0.00 | 67 | 1005.1 |
| 20260509061846 | 11 | 174 | 0.0 | 3.2 | 0.00 | 0.00 | 0.00 | 66 | 1005.1 |
| 20260509061736 | 11 | 191 | 0.0 | 3.2 | 0.00 | 0.00 | 0.00 | 66 | 1005.1 |
| 20260509061646 | 11 | 210 | 0.0 | 3.2 | 0.00 | 0.00 | 0.00 | 65 | 1005.0 |
| 20260509061532 | 11 | 210 | 0.0 | 3.2 | 0.00 | 0.00 | 0.00 | 65 | 1005.2 |
| 20260509061426 | 11 | 259 | 0.0 | 4.8 | 0.00 | 0.00 | 0.00 | 65 | 1005.3 |
| 20260509061339 | 11 | 156 | 0.0 | 6.4 | 0.00 | 0.00 | 0.00 | 64 | 1005.3 |
| 20260509061229 | 11 | 139 | 0.0 | 6.4 | 0.00 | 0.00 | 0.00 | 64 | 1005.3 |
| 20260509061142 | 11 | 153 | 0.0 | 6.4 | 0.00 | 0.00 | 0.00 | 63 | 1005.4 |
| 20260509061047 | 11 | 152 | 1.6 | 6.4 | 0.00 | 0.00 | 0.00 | 63 | 1005.5 |
| 20260509060937 | 11 | 152 | 1.6 | 6.4 | 0.00 | 0.00 | 0.00 | 62 | 1005.4 |
| 20260509060828 | 11 | 219 | 1.6 | 6.4 | 0.00 | 0.00 | 0.00 | 62 | 1005.3 |
| 20260509060740 | 11 | 219 | 1.6 | 6.4 | 0.00 | 0.00 | 0.00 | 62 | 1005.5 |
| 20260509060631 | 11 | 219 | 3.2 | 6.4 | 0.00 | 0.00 | 0.00 | 62 | 1005.5 |
| 20260509060541 | 11 | 155 | 1.6 | 6.4 | 0.00 | 0.00 | 0.00 | 62 | 1005.4 |
| 20260509060452 | 11 | 209 | 1.6 | 6.4 | 0.00 | 0.00 | 0.00 | 61 | 1005.4 |
| 20260509060342 | 11 | 210 | 1.6 | 6.4 | 0.00 | 0.00 | 0.00 | 61 | 1005.5 |
| 20260509060254 | 11 | 210 | 1.6 | 6.4 | 0.00 | 0.00 | 0.00 | 61 | 1005.5 |
| 20260509060205 | 11 | 208 | 1.6 | 3.2 | 0.00 | 0.00 | 0.00 | 60 | 1005.5 |
| 20260509060029 | 11 | 210 | 1.6 | 3.2 | 0.00 | 0.00 | 0.00 | 59 | 1005.5 |
| 20260509055940 | 11 | 218 | 1.6 | 3.2 | 0.00 | 0.00 | 0.00 | 59 | 1005.5 |
| 20260509055853 | 11 | 216 | 0.0 | 4.8 | 0.00 | 0.00 | 0.00 | 58 | 1005.5 |
| 20260509055805 | 11 | 216 | 0.0 | 4.8 | 0.00 | 0.00 | 0.00 | 58 | 1005.4 |
| 20260509055635 | 11 | 216 | 0.0 | 4.8 | 0.00 | 0.00 | 0.00 | 57 | 1005.5 |
| 20260509055525 | 11 | 184 | 0.0 | 4.8 | 0.00 | 0.00 | 0.00 | 57 | 1005.5 |
| 20260509055436 | 11 | 190 | 0.0 | 4.8 | 0.00 | 0.00 | 0.00 | 57 | 1005.5 |
| 20260509055326 | 11 | 190 | 0.0 | 4.8 | 0.00 | 0.00 | 0.00 | 55 | 1005.5 |
| 20260509055238 | 11 | 202 | 0.0 | 4.8 | 0.00 | 0.00 | 0.00 | 55 | 1005.5 |
| 20260509055129 | 11 | 202 | 1.6 | 4.8 | 0.00 | 0.00 | 0.00 | 55 | 1005.6 |
| 20260509055035 | 11 | 210 | 1.6 | 4.8 | 0.00 | 0.00 | 0.00 | 55 | 1005.6 |
| 20260509054926 | 11 | 221 | 0.0 | 4.8 | 0.00 | 0.00 | 0.00 | 55 | 1005.5 |
| 20260509054836 | 11 | 221 | 0.0 | 8.0 | 0.00 | 0.00 | 0.00 | 55 | 1005.6 |
| 20260509054727 | 11 | 221 | 0.0 | 8.0 | 0.00 | 0.00 | 0.00 | 54 | 1005.5 |
| 20260509054642 | 11 | 221 | 1.6 | 8.0 | 0.00 | 0.00 | 0.00 | 54 | 1005.5 |
| 20260509054528 | 11 | 207 | 1.6 | 8.0 | 0.00 | 0.00 | 0.00 | 54 | 1005.5 |
| 20260509054439 | 11 | 209 | 1.6 | 9.7 | 0.00 | 0.00 | 0.00 | 54 | 1005.5 |
| 20260509054329 | 11 | 218 | 1.6 | 9.7 | 0.00 | 0.00 | 0.00 | 53 | 1005.6 |
| 20260509054239 | 11 | 172 | 1.6 | 9.7 | 0.00 | 0.00 | 0.00 | 53 | 1005.6 |
| 20260509054153 | 11 | 198 | 3.2 | 9.7 | 0.00 | 0.00 | 0.00 | 53 | 1005.6 |
| 20260509054103 | 11 | 193 | 1.6 | 9.7 | 0.00 | 0.00 | 0.00 | 53 | 1005.5 |
| 20260509053933 | 11 | 232 | 1.6 | 9.7 | 0.00 | 0.00 | 0.00 | 53 | 1005.5 |
| 20260509053846 | 11 | 252 | 1.6 | 9.7 | 0.00 | 0.00 | 0.00 | 52 | 1005.5 |
| 20260509053757 | 11 | 186 | 1.6 | 9.7 | 0.00 | 0.00 | 0.00 | 52 | 1005.5 |
| 20260509053631 | 11 | 193 | 4.8 | 9.7 | 0.00 | 0.00 | 0.00 | 52 | 1005.6 |
| 20260509053536 | 11 | 201 | 3.2 | 9.7 | 0.00 | 0.00 | 0.00 | 52 | 1005.6 |
| 20260509053429 | 11 | 199 | 1.6 | 8.0 | 0.00 | 0.00 | 0.00 | 52 | 1005.5 |
| 20260509053340 | 11 | 207 | 3.2 | 8.0 | 0.00 | 0.00 | 0.00 | 52 | 1005.5 |
| 20260509053232 | 11 | 143 | 3.2 | 8.0 | 0.00 | 0.00 | 0.00 | 52 | 1005.6 |
| 20260509053142 | 11 | 166 | 1.6 | 8.0 | 0.00 | 0.00 | 0.00 | 52 | 1005.6 |
| 20260509053027 | 11 | 170 | 1.6 | 8.0 | 0.00 | 0.00 | 0.00 | 51 | 1005.6 |
| 20260509052939 | 11 | 161 | 1.6 | 8.0 | 0.00 | 0.00 | 0.00 | 51 | 1005.6 |
| 20260509052832 | 11 | 165 | 3.2 | 9.7 | 0.00 | 0.00 | 0.00 | 51 | 1005.6 |
| 20260509052744 | 11 | 215 | 3.2 | 9.7 | 0.00 | 0.00 | 0.00 | 51 | 1005.6 |
| 20260509052543 | 11 | 124 | 4.8 | 9.7 | 0.00 | 0.00 | 0.00 | 51 | 1005.7 |
| 20260509052454 | 11 | 231 | 3.2 | 9.7 | 0.00 | 0.00 | 0.00 | 51 | 1005.6 |
| 20260509052325 | 11 | 225 | 1.6 | 9.7 | 0.00 | 0.00 | 0.00 | 51 | 1005.6 |
| 20260509052236 | 11 | 176 | 1.6 | 9.7 | 0.00 | 0.00 | 0.00 | 51 | 1005.6 |
| 20260509052148 | 11 | 231 | 3.2 | 9.7 | 0.00 | 0.00 | 0.00 | 51 | 1005.6 |
| 20260509052033 | 11 | 207 | 4.8 | 9.7 | 0.00 | 0.00 | 0.00 | 51 | 1005.7 |
| 20260509051925 | 11 | 209 | 3.2 | 6.4 | 0.00 | 0.00 | 0.00 | 51 | 1005.7 |
| 20260509051835 | 11 | 181 | 3.2 | 6.4 | 0.00 | 0.00 | 0.00 | 51 | 1005.7 |
| 20260509051730 | 11 | 218 | 3.2 | 6.4 | 0.00 | 0.00 | 0.00 | 50 | 1005.7 |
| 20260509051640 | 11 | 162 | 1.6 | 8.0 | 0.00 | 0.00 | 0.00 | 50 | 1005.6 |
| 20260509051545 | 11 | 215 | 0.0 | 8.0 | 0.00 | 0.00 | 0.00 | 50 | 1005.6 |
| 20260509051437 | 11 | 168 | 1.6 | 8.0 | 0.00 | 0.00 | 0.00 | 50 | 1005.7 |
| 20260509051347 | 11 | 139 | 3.2 | 8.0 | 0.00 | 0.00 | 0.00 | 50 | 1005.7 |
| 20260509051259 | 11 | 220 | 3.2 | 8.0 | 0.00 | 0.00 | 0.00 | 50 | 1005.6 |
| 20260509051128 | 11 | 208 | 1.6 | 8.0 | 0.00 | 0.00 | 0.00 | 50 | 1005.6 |
| 20260509051033 | 11 | 207 | 1.6 | 9.7 | 0.00 | 0.00 | 0.00 | 50 | 1005.7 |
| 20260509050943 | 12 | 205 | 3.2 | 9.7 | 0.00 | 0.00 | 0.00 | 50 | 1005.7 |
| 20260509050857 | 11 | 222 | 3.2 | 9.7 | 0.00 | 0.00 | 0.00 | 50 | 1005.7 |
| 20260509050807 | 11 | 236 | 1.6 | 9.7 | 0.00 | 0.00 | 0.00 | 49 | 1005.7 |
| 20260509050657 | 11 | 226 | 3.2 | 9.7 | 0.00 | 0.00 | 0.00 | 49 | 1005.7 |
| 20260509050525 | 12 | 208 | 3.2 | 9.7 | 0.00 | 0.00 | 0.00 | 49 | 1005.7 |
| 20260509050438 | 11 | 209 | 3.2 | 9.7 | 0.00 | 0.00 | 0.00 | 49 | 1005.7 |
| 20260509050348 | 11 | 233 | 3.2 | 9.7 | 0.00 | 0.00 | 0.00 | 49 | 1005.7 |
| 20260509050259 | 11 | 217 | 3.2 | 9.7 | 0.00 | 0.00 | 0.00 | 49 | 1005.7 |
| 20260509050128 | 11 | 211 | 1.6 | 6.4 | 0.00 | 0.00 | 0.00 | 49 | 1005.6 |
| 20260509050036 | 11 | 242 | 1.6 | 6.4 | 0.00 | 0.00 | 0.00 | 49 | 1005.6 |
| 20260509045926 | 11 | 89 | 0.0 | 6.4 | 0.00 | 0.00 | 0.00 | 49 | 1005.6 |
| 20260509045836 | 12 | 155 | 1.6 | 6.4 | 0.00 | 0.00 | 0.00 | 49 | 1005.6 |
| 20260509045747 | 11 | 155 | 3.2 | 6.4 | 0.00 | 0.00 | 0.00 | 49 | 1005.6 |
| 20260509045639 | 12 | 108 | 3.2 | 6.4 | 0.00 | 0.00 | 0.00 | 49 | 1005.6 |
| 20260509045528 | 12 | 208 | 1.6 | 6.4 | 0.00 | 0.00 | 0.00 | 49 | 1005.7 |
| 20260509045438 | 12 | 231 | 1.6 | 4.8 | 0.00 | 0.00 | 0.00 | 48 | 1005.7 |
| 20260509045329 | 12 | 103 | 1.6 | 9.7 | 0.00 | 0.00 | 0.00 | 48 | 1005.6 |
| 20260509045240 | 12 | 215 | 1.6 | 9.7 | 0.00 | 0.00 | 0.00 | 48 | 1005.7 |
| 20260509045131 | 12 | 146 | 1.6 | 9.7 | 0.00 | 0.00 | 0.00 | 48 | 1005.7 |
| 20260509045037 | 12 | 198 | 1.6 | 9.7 | 0.00 | 0.00 | 0.00 | 48 | 1005.7 |
| 20260509044951 | 12 | 67 | 1.6 | 9.7 | 0.00 | 0.00 | 0.00 | 48 | 1005.7 |
| 20260509044841 | 12 | 141 | 3.2 | 9.7 | 0.00 | 0.00 | 0.00 | 48 | 1005.7 |
| 20260509044732 | 12 | 221 | 3.2 | 9.7 | 0.00 | 0.00 | 0.00 | 48 | 1005.7 |
| 20260509044646 | 12 | 219 | 3.2 | 9.7 | 0.00 | 0.00 | 0.00 | 48 | 1005.7 |
| 20260509044559 | 12 | 217 | 3.2 | 9.7 | 0.00 | 0.00 | 0.00 | 48 | 1005.7 |
| 20260509044504 | 12 | 138 | 3.2 | 9.7 | 0.00 | 0.00 | 0.00 | 48 | 1005.7 |
| 20260509044357 | 12 | 214 | 3.2 | 9.7 | 0.00 | 0.00 | 0.00 | 48 | 1005.7 |
| 20260509044308 | 12 | 158 | 3.2 | 9.7 | 0.00 | 0.00 | 0.00 | 47 | 1005.7 |
| 20260509044219 | 12 | 212 | 3.2 | 9.7 | 0.00 | 0.00 | 0.00 | 47 | 1005.7 |
| 20260509044108 | 12 | 193 | 3.2 | 9.7 | 0.00 | 0.00 | 0.00 | 47 | 1005.6 |
| 20260509043958 | 12 | 228 | 1.6 | 9.7 | 0.00 | 0.00 | 0.00 | 47 | 1005.7 |
| 20260509043828 | 12 | 229 | 1.6 | 9.7 | 0.00 | 0.00 | 0.00 | 47 | 1005.7 |
| 20260509043739 | 12 | 185 | 3.2 | 9.7 | 0.00 | 0.00 | 0.00 | 47 | 1005.7 |
| 20260509043630 | 12 | 105 | 3.2 | 9.7 | 0.00 | 0.00 | 0.00 | 47 | 1005.8 |
| 20260509043540 | 12 | 158 | 3.2 | 9.7 | 0.00 | 0.00 | 0.00 | 47 | 1005.7 |
| 20260509043430 | 12 | 200 | 4.8 | 9.7 | 0.00 | 0.00 | 0.00 | 47 | 1005.7 |
| 20260509043341 | 11 | 219 | 3.2 | 9.7 | 0.00 | 0.00 | 0.00 | 47 | 1005.7 |
| 20260509043232 | 11 | 193 | 3.2 | 9.7 | 0.00 | 0.00 | 0.00 | 47 | 1005.8 |
| 20260509043143 | 11 | 195 | 3.2 | 6.4 | 0.00 | 0.00 | 0.00 | 47 | 1005.8 |
| 20260509043049 | 11 | 198 | 3.2 | 6.4 | 0.00 | 0.00 | 0.00 | 47 | 1005.8 |
| 20260509042938 | 11 | 172 | 3.2 | 6.4 | 0.00 | 0.00 | 0.00 | 47 | 1005.8 |
| 20260509042852 | 11 | 220 | 1.6 | 6.4 | 0.00 | 0.00 | 0.00 | 47 | 1005.8 |
| 20260509042804 | 11 | 170 | 1.6 | 6.4 | 0.00 | 0.00 | 0.00 | 47 | 1005.8 |
| 20260509042653 | 11 | 160 | 1.6 | 6.4 | 0.00 | 0.00 | 0.00 | 47 | 1005.8 |
| 20260509042538 | 11 | 162 | 3.2 | 6.4 | 0.00 | 0.00 | 0.00 | 47 | 1005.9 |
| 20260509042432 | 11 | 214 | 1.6 | 6.4 | 0.00 | 0.00 | 0.00 | 47 | 1005.8 |
| 20260509042325 | 11 | 110 | 3.2 | 6.4 | 0.00 | 0.00 | 0.00 | 47 | 1005.8 |
| 20260509042235 | 11 | 185 | 3.2 | 6.4 | 0.00 | 0.00 | 0.00 | 47 | 1005.9 |
| 20260509042144 | 11 | 207 | 3.2 | 6.4 | 0.00 | 0.00 | 0.00 | 47 | 1006.0 |
| 20260509042056 | 11 | 193 | 3.2 | 6.4 | 0.00 | 0.00 | 0.00 | 47 | 1006.0 |
| 20260509042002 | 11 | 211 | 1.6 | 6.4 | 0.00 | 0.00 | 0.00 | 47 | 1005.9 |
| 20260509041914 | 11 | 172 | 0.0 | 4.8 | 0.00 | 0.00 | 0.00 | 47 | 1005.9 |
| 20260509041803 | 11 | 190 | 0.0 | 4.8 | 0.00 | 0.00 | 0.00 | 47 | 1005.9 |
| 20260509041714 | 11 | 184 | 1.6 | 4.8 | 0.00 | 0.00 | 0.00 | 47 | 1005.9 |
| 20260509041558 | 11 | 189 | 1.6 | 4.8 | 0.00 | 0.00 | 0.00 | 47 | 1005.9 |
| 20260509041448 | 11 | 211 | 0.0 | 1.6 | 0.00 | 0.00 | 0.00 | 47 | 1005.9 |
| 20260509041343 | 11 | 209 | 1.6 | 1.6 | 0.00 | 0.00 | 0.00 | 47 | 1005.9 |
| 20260509041234 | 11 | 153 | 0.0 | 1.6 | 0.00 | 0.00 | 0.00 | 47 | 1005.9 |
| 20260509041124 | 11 | 216 | 0.0 | 1.6 | 0.00 | 0.00 | 0.00 | 47 | 1006.0 |
| 20260509041031 | 11 | 215 | 0.0 | 1.6 | 0.00 | 0.00 | 0.00 | 47 | 1005.9 |
| 20260509040942 | 11 | 207 | 0.0 | 1.6 | 0.00 | 0.00 | 0.00 | 47 | 1006.0 |
| 20260509040833 | 11 | 233 | 0.0 | 1.6 | 0.00 | 0.00 | 0.00 | 47 | 1005.9 |
| 20260509040724 | 11 | 181 | 0.0 | 1.6 | 0.00 | 0.00 | 0.00 | 47 | 1006.0 |
| 20260509040635 | 11 | 189 | 0.0 | 1.6 | 0.00 | 0.00 | 0.00 | 47 | 1006.0 |
| 20260509040524 | 11 | 190 | 0.0 | 1.6 | 0.00 | 0.00 | 0.00 | 47 | 1006.0 |
| 20260509040435 | 11 | 188 | 0.0 | 1.6 | 0.00 | 0.00 | 0.00 | 46 | 1006.0 |
| 20260509040347 | 11 | 182 | 0.0 | 1.6 | 0.00 | 0.00 | 0.00 | 46 | 1006.0 |
| 20260509040236 | 11 | 181 | 0.0 | 1.6 | 0.00 | 0.00 | 0.00 | 46 | 1006.1 |
| 20260509040149 | 11 | 181 | 0.0 | 1.6 | 0.00 | 0.00 | 0.00 | 46 | 1006.1 |
| 20260509040056 | 11 | 181 | 0.0 | 4.8 | 0.00 | 0.00 | 0.00 | 46 | 1006.1 |
| 20260509035937 | 11 | 181 | 0.0 | 4.8 | 0.00 | 0.00 | 0.00 | 46 | 1006.1 |
| 20260509035828 | 11 | 155 | 0.0 | 4.8 | 0.00 | 0.00 | 0.00 | 46 | 1006.1 |
| 20260509035740 | 11 | 157 | 0.0 | 4.8 | 0.00 | 0.00 | 0.00 | 46 | 1006.1 |
| 20260509035652 | 11 | 205 | 0.0 | 4.8 | 0.00 | 0.00 | 0.00 | 46 | 1006.1 |
| 20260509035603 | 12 | 205 | 0.0 | 4.8 | 0.00 | 0.00 | 0.00 | 46 | 1006.1 |
| 20260509035438 | 12 | 105 | 1.6 | 4.8 | 0.00 | 0.00 | 0.00 | 46 | 1006.2 |
| 20260509035347 | 12 | 85 | 1.6 | 4.8 | 0.00 | 0.00 | 0.00 | 45 | 1006.1 |
| 20260509035300 | 12 | 85 | 1.6 | 4.8 | 0.00 | 0.00 | 0.00 | 46 | 1006.2 |
| 20260509035150 | 12 | 188 | 0.0 | 3.2 | 0.00 | 0.00 | 0.00 | 46 | 1006.2 |
| 20260509035054 | 12 | 155 | 0.0 | 3.2 | 0.00 | 0.00 | 0.00 | 45 | 1006.3 |
| 20260509034943 | 12 | 165 | 0.0 | 3.2 | 0.00 | 0.00 | 0.00 | 45 | 1006.2 |
| 20260509034834 | 12 | 167 | 0.0 | 4.8 | 0.00 | 0.00 | 0.00 | 45 | 1006.2 |
| 20260509034745 | 12 | 157 | 0.0 | 4.8 | 0.00 | 0.00 | 0.00 | 45 | 1006.2 |
| 20260509034635 | 12 | 169 | 0.0 | 4.8 | 0.00 | 0.00 | 0.00 | 45 | 1006.2 |
| 20260509034541 | 12 | 184 | 1.6 | 4.8 | 0.00 | 0.00 | 0.00 | 45 | 1006.3 |
| 20260509034453 | 12 | 122 | 1.6 | 4.8 | 0.00 | 0.00 | 0.00 | 45 | 1006.3 |
| 20260509034328 | 12 | 244 | 0.0 | 4.8 | 0.00 | 0.00 | 0.00 | 45 | 1006.3 |
| 20260509034239 | 12 | 106 | 1.6 | 4.8 | 0.00 | 0.00 | 0.00 | 45 | 1006.3 |
| 20260509034153 | 12 | 206 | 1.6 | 4.8 | 0.00 | 0.00 | 0.00 | 45 | 1006.3 |
| 20260509034104 | 12 | 153 | 1.6 | 4.8 | 0.00 | 0.00 | 0.00 | 45 | 1006.3 |
| 20260509034011 | 12 | 205 | 0.0 | 4.8 | 0.00 | 0.00 | 0.00 | 45 | 1006.4 |
| 20260509033840 | 12 | 217 | 0.0 | 3.2 | 0.00 | 0.00 | 0.00 | 45 | 1006.3 |
| 20260509033732 | 12 | 211 | 0.0 | 3.2 | 0.00 | 0.00 | 0.00 | 44 | 1006.4 |
| 20260509033644 | 12 | 148 | 0.0 | 3.2 | 0.00 | 0.00 | 0.00 | 44 | 1006.4 |
| 20260509033530 | 12 | 71 | 0.0 | 1.6 | 0.00 | 0.00 | 0.00 | 44 | 1006.4 |
| 20260509033426 | 12 | 167 | 0.0 | 1.6 | 0.00 | 0.00 | 0.00 | 44 | 1006.4 |
| 20260509033336 | 12 | 161 | 0.0 | 1.6 | 0.00 | 0.00 | 0.00 | 44 | 1006.5 |
| 20260509033228 | 12 | 172 | 0.0 | 1.6 | 0.00 | 0.00 | 0.00 | 43 | 1006.4 |
| 20260509033139 | 12 | 172 | 0.0 | 1.6 | 0.00 | 0.00 | 0.00 | 43 | 1006.4 |
| 20260509033026 | 12 | 172 | 0.0 | 1.6 | 0.00 | 0.00 | 0.00 | 43 | 1006.3 |
| 20260509032937 | 12 | 207 | 0.0 | 1.6 | 0.00 | 0.00 | 0.00 | 43 | 1006.4 |
| 20260509032848 | 12 | 198 | 0.0 | 3.2 | 0.00 | 0.00 | 0.00 | 43 | 1006.4 |
| 20260509032801 | 12 | 198 | 0.0 | 3.2 | 0.00 | 0.00 | 0.00 | 43 | 1006.4 |
| 20260509032711 | 12 | 198 | 0.0 | 3.2 | 0.00 | 0.00 | 0.00 | 43 | 1006.4 |
| 20260509032602 | 12 | 151 | 0.0 | 3.2 | 0.00 | 0.00 | 0.00 | 43 | 1006.4 |
| 20260509032437 | 12 | 151 | 0.0 | 3.2 | 0.00 | 0.00 | 0.00 | 43 | 1006.4 |
| 20260509032328 | 12 | 187 | 0.0 | 3.2 | 0.00 | 0.00 | 0.00 | 43 | 1006.5 |
| 20260509032240 | 12 | 187 | 0.0 | 3.2 | 0.00 | 0.00 | 0.00 | 42 | 1006.4 |
| 20260509032131 | 12 | 96 | 0.0 | 3.2 | 0.00 | 0.00 | 0.00 | 42 | 1006.4 |
| 20260509032037 | 12 | 95 | 0.0 | 3.2 | 0.00 | 0.00 | 0.00 | 42 | 1006.5 |
| 20260509031927 | 12 | 160 | 0.0 | 1.6 | 0.00 | 0.00 | 0.00 | 42 | 1006.5 |
| 20260509031839 | 12 | 199 | 0.0 | 1.6 | 0.00 | 0.00 | 0.00 | 42 | 1006.5 |
| 20260509031750 | 12 | 199 | 0.0 | 1.6 | 0.00 | 0.00 | 0.00 | 42 | 1006.5 |
| 20260509031639 | 12 | 270 | 0.0 | 1.6 | 0.00 | 0.00 | 0.00 | 42 | 1006.6 |
| 20260509031550 | 12 | 269 | 0.0 | 1.6 | 0.00 | 0.00 | 0.00 | 41 | 1006.6 |
| 20260509031501 | 12 | 271 | 0.0 | 1.6 | 0.00 | 0.00 | 0.00 | 41 | 1006.6 |
| 20260509031351 | 12 | 271 | 0.0 | 1.6 | 0.00 | 0.00 | 0.00 | 41 | 1006.6 |
| 20260509031241 | 12 | 158 | 0.0 | 1.6 | 0.00 | 0.00 | 0.00 | 41 | 1006.6 |
| 20260509031132 | 12 | 158 | 0.0 | 1.6 | 0.00 | 0.00 | 0.00 | 41 | 1006.5 |
| 20260509031038 | 12 | 158 | 0.0 | 1.6 | 0.00 | 0.00 | 0.00 | 41 | 1006.6 |
| 20260509030929 | 12 | 158 | 0.0 | 1.6 | 0.00 | 0.00 | 0.00 | 40 | 1006.6 |
| 20260509030842 | 12 | 156 | 0.0 | 1.6 | 0.00 | 0.00 | 0.00 | 40 | 1006.6 |
| 20260509030733 | 12 | 156 | 0.0 | 3.2 | 0.00 | 0.00 | 0.00 | 41 | 1006.6 |
| 20260509030643 | 12 | 156 | 0.0 | 4.8 | 0.00 | 0.00 | 0.00 | 40 | 1006.6 |
| 20260509030557 | 12 | 156 | 0.0 | 4.8 | 0.00 | 0.00 | 0.00 | 41 | 1006.6 |
| 20260509030506 | 12 | 124 | 0.0 | 4.8 | 0.00 | 0.00 | 0.00 | 40 | 1006.6 |
| 20260509030358 | 12 | 154 | 0.0 | 4.8 | 0.00 | 0.00 | 0.00 | 40 | 1006.6 |
| 20260509030309 | 12 | 176 | 0.0 | 4.8 | 0.00 | 0.00 | 0.00 | 40 | 1006.6 |
| 20260509030159 | 12 | 176 | 0.0 | 4.8 | 0.00 | 0.00 | 0.00 | 40 | 1006.6 |
| 20260509030043 | 12 | 176 | 0.0 | 4.8 | 0.00 | 0.00 | 0.00 | 40 | 1006.6 |
| 20260509025957 | 12 | 218 | 1.6 | 4.8 | 0.00 | 0.00 | 0.00 | 40 | 1006.6 |
| 20260509025908 | 12 | 218 | 1.6 | 4.8 | 0.00 | 0.00 | 0.00 | 40 | 1006.6 |
| 20260509025735 | 12 | 218 | 1.6 | 4.8 | 0.00 | 0.00 | 0.00 | 40 | 1006.6 |
| 20260509025647 | 12 | 210 | 1.6 | 4.8 | 0.00 | 0.00 | 0.00 | 40 | 1006.6 |
| 20260509025553 | 12 | 224 | 1.6 | 4.8 | 0.00 | 0.00 | 0.00 | 40 | 1006.6 |
| 20260509025442 | 12 | 229 | 1.6 | 4.8 | 0.00 | 0.00 | 0.00 | 40 | 1006.7 |
| 20260509025333 | 12 | 112 | 0.0 | 3.2 | 0.00 | 0.00 | 0.00 | 41 | 1006.7 |
| 20260509025228 | 12 | 112 | 0.0 | 3.2 | 0.00 | 0.00 | 0.00 | 40 | 1006.6 |
| 20260509025140 | 12 | 207 | 0.0 | 3.2 | 0.00 | 0.00 | 0.00 | 40 | 1006.7 |
| 20260509025027 | 12 | 207 | 0.0 | 3.2 | 0.00 | 0.00 | 0.00 | 40 | 1006.7 |
| 20260509024938 | 12 | 190 | 0.0 | 3.2 | 0.00 | 0.00 | 0.00 | 39 | 1006.7 |
| 20260509024829 | 12 | 190 | 0.0 | 3.2 | 0.00 | 0.00 | 0.00 | 39 | 1006.7 |
| 20260509024739 | 12 | 190 | 0.0 | 3.2 | 0.00 | 0.00 | 0.00 | 39 | 1006.7 |
| 20260509024650 | 12 | 190 | 0.0 | 3.2 | 0.00 | 0.00 | 0.00 | 39 | 1006.7 |
| 20260509024540 | 12 | 190 | 0.0 | 3.2 | 0.00 | 0.00 | 0.00 | 39 | 1006.8 |
| 20260509024431 | 12 | 190 | 0.0 | 3.2 | 0.00 | 0.00 | 0.00 | 39 | 1006.8 |
| 20260509024345 | 12 | 194 | 0.0 | 3.2 | 0.00 | 0.00 | 0.00 | 39 | 1006.8 |
| 20260509024258 | 12 | 160 | 0.0 | 3.2 | 0.00 | 0.00 | 0.00 | 38 | 1006.8 |
| 20260509024209 | 12 | 160 | 0.0 | 3.2 | 0.00 | 0.00 | 0.00 | 38 | 1006.9 |
| 20260509024059 | 12 | 160 | 0.0 | 3.2 | 0.00 | 0.00 | 0.00 | 38 | 1006.9 |
| 20260509023930 | 12 | 161 | 0.0 | 3.2 | 0.00 | 0.00 | 0.00 | 38 | 1006.9 |
| 20260509023842 | 12 | 161 | 0.0 | 3.2 | 0.00 | 0.00 | 0.00 | 38 | 1006.9 |
| 20260509023734 | 12 | 161 | 0.0 | 3.2 | 0.00 | 0.00 | 0.00 | 38 | 1006.9 |
| 20260509023625 | 12 | 161 | 0.0 | 3.2 | 0.00 | 0.00 | 0.00 | 38 | 1006.9 |
| 20260509023532 | 12 | 161 | 0.0 | 0.0 | 0.00 | 0.00 | 0.00 | 38 | 1006.9 |
| 20260509023427 | 12 | 214 | 0.0 | 0.0 | 0.00 | 0.00 | 0.00 | 38 | 1006.9 |
| 20260509023339 | 12 | 214 | 0.0 | 0.0 | 0.00 | 0.00 | 0.00 | 38 | 1006.9 |
| 20260509023251 | 12 | 214 | 0.0 | 0.0 | 0.00 | 0.00 | 0.00 | 37 | 1006.9 |
| 20260509023142 | 12 | 216 | 0.0 | 0.0 | 0.00 | 0.00 | 0.00 | 37 | 1007.0 |
| 20260509023028 | 12 | 216 | 0.0 | 0.0 | 0.00 | 0.00 | 0.00 | 37 | 1007.0 |
| 20260509022940 | 12 | 215 | 0.0 | 0.0 | 0.00 | 0.00 | 0.00 | 37 | 1007.0 |
| 20260509022832 | 12 | 215 | 0.0 | 0.0 | 0.00 | 0.00 | 0.00 | 37 | 1007.1 |
| 20260509022745 | 12 | 216 | 0.0 | 1.6 | 0.00 | 0.00 | 0.00 | 37 | 1007.0 |
| 20260509022656 | 12 | 216 | 0.0 | 1.6 | 0.00 | 0.00 | 0.00 | 37 | 1007.0 |
| 20260509022542 | 12 | 216 | 0.0 | 1.6 | 0.00 | 0.00 | 0.00 | 37 | 1007.0 |
| 20260509022438 | 12 | 216 | 0.0 | 1.6 | 0.00 | 0.00 | 0.00 | 36 | 1007.0 |
| 20260509022328 | 12 | 216 | 0.0 | 1.6 | 0.00 | 0.00 | 0.00 | 36 | 1007.0 |
| 20260509022240 | 12 | 216 | 0.0 | 1.6 | 0.00 | 0.00 | 0.00 | 36 | 1007.0 |
| 20260509022131 | 12 | 215 | 0.0 | 1.6 | 0.00 | 0.00 | 0.00 | 36 | 1007.0 |
| 20260509022038 | 12 | 210 | 0.0 | 1.6 | 0.00 | 0.00 | 0.00 | 36 | 1007.0 |
| 20260509021929 | 12 | 95 | 0.0 | 0.0 | 0.00 | 0.00 | 0.00 | 36 | 1007.0 |
| 20260509021840 | 12 | 95 | 0.0 | 0.0 | 0.00 | 0.00 | 0.00 | 36 | 1007.0 |
| 20260509021732 | 12 | 95 | 0.0 | 0.0 | 0.00 | 0.00 | 0.00 | 36 | 1007.1 |
| 20260509021643 | 12 | 96 | 0.0 | 0.0 | 0.00 | 0.00 | 0.00 | 36 | 1007.1 |
| 20260509021559 | 12 | 95 | 0.0 | 1.6 | 0.00 | 0.00 | 0.00 | 36 | 1007.1 |
| 20260509021447 | 12 | 95 | 0.0 | 1.6 | 0.00 | 0.00 | 0.00 | 35 | 1007.1 |
| 20260509021338 | 12 | 96 | 0.0 | 1.6 | 0.00 | 0.00 | 0.00 | 35 | 1007.0 |
| 20260509021227 | 12 | 96 | 0.0 | 1.6 | 0.00 | 0.00 | 0.00 | 36 | 1007.1 |
| 20260509021139 | 12 | 96 | 0.0 | 1.6 | 0.00 | 0.00 | 0.00 | 36 | 1007.1 |
| 20260509021046 | 12 | 96 | 0.0 | 1.6 | 0.00 | 0.00 | 0.00 | 35 | 1007.1 |
| 20260509020936 | 12 | 95 | 0.0 | 1.6 | 0.00 | 0.00 | 0.00 | 35 | 1007.1 |
| 20260509020827 | 12 | 95 | 0.0 | 1.6 | 0.00 | 0.00 | 0.00 | 35 | 1007.0 |
| 20260509020738 | 12 | 95 | 0.0 | 1.6 | 0.00 | 0.00 | 0.00 | 35 | 1007.1 |
| 20260509020627 | 12 | 96 | 0.0 | 3.2 | 0.00 | 0.00 | 0.00 | 35 | 1007.1 |
| 20260509020538 | 12 | 95 | 0.0 | 3.2 | 0.00 | 0.00 | 0.00 | 35 | 1007.0 |
| 20260509020428 | 12 | 95 | 0.0 | 3.2 | 0.00 | 0.00 | 0.00 | 35 | 1007.0 |
| 20260509020340 | 12 | 95 | 0.0 | 3.2 | 0.00 | 0.00 | 0.00 | 34 | 1007.0 |
| 20260509020231 | 12 | 95 | 0.0 | 3.2 | 0.00 | 0.00 | 0.00 | 35 | 1007.1 |
| 20260509020140 | 12 | 95 | 0.0 | 3.2 | 0.00 | 0.00 | 0.00 | 35 | 1007.0 |
| 20260509020054 | 12 | 95 | 0.0 | 3.2 | 0.00 | 0.00 | 0.00 | 34 | 1007.0 |
| 20260509020001 | 12 | 210 | 0.0 | 3.2 | 0.00 | 0.00 | 0.00 | 35 | 1006.9 |
| 20260509015831 | 12 | 210 | 1.6 | 3.2 | 0.00 | 0.00 | 0.00 | 34 | 1007.0 |
| 20260509015744 | 12 | 170 | 0.0 | 3.2 | 0.00 | 0.00 | 0.00 | 35 | 1006.9 |
| 20260509015639 | 12 | 229 | 0.0 | 1.6 | 0.00 | 0.00 | 0.00 | 34 | 1006.9 |
| 20260509015526 | 12 | 229 | 0.0 | 1.6 | 0.00 | 0.00 | 0.00 | 34 | 1006.9 |
| 20260509015438 | 12 | 229 | 0.0 | 1.6 | 0.00 | 0.00 | 0.00 | 34 | 1007.0 |
| 20260509015329 | 12 | 229 | 0.0 | 1.6 | 0.00 | 0.00 | 0.00 | 35 | 1006.9 |
| 20260509015240 | 12 | 229 | 0.0 | 1.6 | 0.00 | 0.00 | 0.00 | 35 | 1006.9 |
| 20260509015153 | 12 | 229 | 0.0 | 1.6 | 0.00 | 0.00 | 0.00 | 35 | 1006.9 |
| 20260509015058 | 12 | 229 | 0.0 | 1.6 | 0.00 | 0.00 | 0.00 | 34 | 1007.0 |
| 20260509014929 | 12 | 126 | 0.0 | 1.6 | 0.00 | 0.00 | 0.00 | 34 | 1006.9 |
| 20260509014840 | 12 | 125 | 0.0 | 1.6 | 0.00 | 0.00 | 0.00 | 34 | 1006.9 |
| 20260509014752 | 12 | 126 | 0.0 | 1.6 | 0.00 | 0.00 | 0.00 | 34 | 1006.9 |
| 20260509014645 | 12 | 129 | 0.0 | 1.6 | 0.00 | 0.00 | 0.00 | 34 | 1006.9 |
| 20260509014552 | 12 | 227 | 0.0 | 1.6 | 0.00 | 0.00 | 0.00 | 34 | 1006.9 |
| 20260509014442 | 12 | 226 | 0.0 | 1.6 | 0.00 | 0.00 | 0.00 | 34 | 1006.9 |
| 20260509014332 | 12 | 227 | 0.0 | 1.6 | 0.00 | 0.00 | 0.00 | 34 | 1006.9 |
| 20260509014242 | 12 | 227 | 0.0 | 1.6 | 0.00 | 0.00 | 0.00 | 34 | 1006.8 |
| 20260509014134 | 12 | 226 | 0.0 | 1.6 | 0.00 | 0.00 | 0.00 | 34 | 1006.9 |
| 20260509014040 | 12 | 227 | 0.0 | 1.6 | 0.00 | 0.00 | 0.00 | 34 | 1006.9 |
| 20260509013931 | 12 | 227 | 0.0 | 1.6 | 0.00 | 0.00 | 0.00 | 33 | 1006.9 |
| 20260509013843 | 12 | 226 | 0.0 | 1.6 | 0.00 | 0.00 | 0.00 | 34 | 1006.8 |
| 20260509013735 | 12 | 227 | 0.0 | 1.6 | 0.00 | 0.00 | 0.00 | 33 | 1006.8 |
| 20260509013650 | 12 | 226 | 0.0 | 1.6 | 0.00 | 0.00 | 0.00 | 33 | 1006.8 |
| 20260509013557 | 12 | 227 | 0.0 | 3.2 | 0.00 | 0.00 | 0.00 | 33 | 1006.8 |
| 20260509013448 | 12 | 227 | 0.0 | 3.2 | 0.00 | 0.00 | 0.00 | 33 | 1006.9 |
| 20260509013338 | 12 | 226 | 0.0 | 3.2 | 0.00 | 0.00 | 0.00 | 33 | 1006.9 |
| 20260509013229 | 12 | 227 | 0.0 | 3.2 | 0.00 | 0.00 | 0.00 | 32 | 1006.9 |
| 20260509013141 | 12 | 227 | 0.0 | 3.2 | 0.00 | 0.00 | 0.00 | 32 | 1006.9 |
| 20260509013028 | 12 | 227 | 0.0 | 3.2 | 0.00 | 0.00 | 0.00 | 32 | 1007.0 |
| 20260509012939 | 12 | 227 | 0.0 | 3.2 | 0.00 | 0.00 | 0.00 | 32 | 1006.9 |
| 20260509012830 | 13 | 227 | 0.0 | 3.2 | 0.00 | 0.00 | 0.00 | 32 | 1006.9 |
| 20260509012740 | 13 | 227 | 0.0 | 3.2 | 0.00 | 0.00 | 0.00 | 33 | 1006.9 |
| 20260509012658 | 13 | 221 | 0.0 | 1.6 | 0.00 | 0.00 | 0.00 | 32 | 1006.9 |
| 20260509012609 | 13 | 221 | 0.0 | 1.6 | 0.00 | 0.00 | 0.00 | 31 | 1006.8 |
| 20260509012516 | 13 | 221 | 0.0 | 1.6 | 0.00 | 0.00 | 0.00 | 32 | 1006.9 |
| 20260509012406 | 13 | 221 | 0.0 | 1.6 | 0.00 | 0.00 | 0.00 | 31 | 1006.9 |
| 20260509012317 | 13 | 221 | 0.0 | 1.6 | 0.00 | 0.00 | 0.00 | 31 | 1006.9 |
| 20260509012229 | 13 | 221 | 0.0 | 1.6 | 0.00 | 0.00 | 0.00 | 31 | 1006.9 |
| 20260509012120 | 13 | 221 | 0.0 | 1.6 | 0.00 | 0.00 | 0.00 | 31 | 1006.9 |
| 20260509012027 | 13 | 221 | 0.0 | 1.6 | 0.00 | 0.00 | 0.00 | 31 | 1006.8 |
| 20260509011827 | 13 | 248 | 0.0 | 1.6 | 0.00 | 0.00 | 0.00 | 30 | 1006.8 |
| 20260509011739 | 13 | 249 | 0.0 | 1.6 | 0.00 | 0.00 | 0.00 | 30 | 1006.8 |
| 20260509011630 | 13 | 249 | 0.0 | 1.6 | 0.00 | 0.00 | 0.00 | 30 | 1006.8 |
| 20260509011541 | 13 | 249 | 0.0 | 1.6 | 0.00 | 0.00 | 0.00 | 29 | 1006.8 |
| 20260509011432 | 13 | 271 | 0.0 | 1.6 | 0.00 | 0.00 | 0.00 | 30 | 1006.8 |
| 20260509011343 | 13 | 271 | 0.0 | 1.6 | 0.00 | 0.00 | 0.00 | 30 | 1006.9 |
| 20260509011256 | 13 | 271 | 0.0 | 1.6 | 0.00 | 0.00 | 0.00 | 29 | 1006.9 |
| 20260509011206 | 13 | 271 | 0.0 | 1.6 | 0.00 | 0.00 | 0.00 | 29 | 1006.8 |
| 20260509011057 | 13 | 271 | 0.0 | 1.6 | 0.00 | 0.00 | 0.00 | 29 | 1006.8 |
| 20260509011003 | 13 | 271 | 0.0 | 1.6 | 0.00 | 0.00 | 0.00 | 29 | 1006.8 |
| 20260509010853 | 13 | 271 | 0.0 | 3.2 | 0.00 | 0.00 | 0.00 | 28 | 1006.8 |
| 20260509010744 | 13 | 218 | 0.0 | 3.2 | 0.00 | 0.00 | 0.00 | 28 | 1006.9 |
| 20260509010655 | 13 | 218 | 0.0 | 3.2 | 0.00 | 0.00 | 0.00 | 28 | 1006.8 |
| 20260509010541 | 13 | 218 | 0.0 | 3.2 | 0.00 | 0.00 | 0.00 | 28 | 1006.8 |
| 20260509010435 | 14 | 218 | 0.0 | 3.2 | 0.00 | 0.00 | 0.00 | 28 | 1006.8 |
| 20260509010327 | 14 | 218 | 0.0 | 4.8 | 0.00 | 0.00 | 0.00 | 27 | 1006.8 |
| 20260509010238 | 14 | 218 | 0.0 | 4.8 | 0.00 | 0.00 | 0.00 | 28 | 1006.9 |
| 20260509010129 | 14 | 218 | 0.0 | 4.8 | 0.00 | 0.00 | 0.00 | 28 | 1006.9 |
| 20260509010035 | 14 | 218 | 1.6 | 4.8 | 0.00 | 0.00 | 0.00 | 27 | 1006.8 |
| 20260509005927 | 14 | 193 | 1.6 | 4.8 | 0.00 | 0.00 | 0.00 | 27 | 1006.8 |
| 20260509005838 | 14 | 174 | 1.6 | 4.8 | 0.00 | 0.00 | 0.00 | 27 | 1006.8 |
| 20260509005727 | 14 | 198 | 0.0 | 4.8 | 0.00 | 0.00 | 0.00 | 27 | 1006.9 |
| 20260509005639 | 14 | 205 | 1.6 | 4.8 | 0.00 | 0.00 | 0.00 | 27 | 1006.8 |
| 20260509005549 | 14 | 195 | 1.6 | 4.8 | 0.00 | 0.00 | 0.00 | 27 | 1006.8 |
| 20260509005439 | 14 | 234 | 0.0 | 3.2 | 0.00 | 0.00 | 0.00 | 27 | 1006.9 |
| 20260509005350 | 14 | 186 | 0.0 | 1.6 | 0.00 | 0.00 | 0.00 | 27 | 1006.9 |
| 20260509005239 | 14 | 186 | 0.0 | 3.2 | 0.00 | 0.00 | 0.00 | 26 | 1006.8 |
| 20260509005131 | 14 | 186 | 1.6 | 3.2 | 0.00 | 0.00 | 0.00 | 26 | 1006.8 |
| 20260509005038 | 14 | 217 | 0.0 | 3.2 | 0.00 | 0.00 | 0.00 | 25 | 1006.8 |
| 20260509004948 | 15 | 255 | 0.0 | 3.2 | 0.00 | 0.00 | 0.00 | 26 | 1006.8 |
| 20260509004900 | 15 | 257 | 0.0 | 3.2 | 0.00 | 0.00 | 0.00 | 26 | 1006.8 |
| 20260509004750 | 15 | 257 | 0.0 | 3.2 | 0.00 | 0.00 | 0.00 | 26 | 1006.8 |
| 20260509004702 | 15 | 257 | 0.0 | 3.2 | 0.00 | 0.00 | 0.00 | 26 | 1006.8 |
| 20260509004527 | 15 | 257 | 0.0 | 3.2 | 0.00 | 0.00 | 0.00 | 25 | 1006.8 |
| 20260509004441 | 15 | 157 | 1.6 | 3.2 | 0.00 | 0.00 | 0.00 | 25 | 1006.8 |
| 20260509004353 | 15 | 158 | 1.6 | 3.2 | 0.00 | 0.00 | 0.00 | 25 | 1006.8 |
| 20260509004242 | 15 | 51 | 0.0 | 3.2 | 0.00 | 0.00 | 0.00 | 25 | 1006.8 |
| 20260509004133 | 15 | 51 | 0.0 | 6.4 | 0.00 | 0.00 | 0.00 | 24 | 1006.8 |
| 20260509004039 | 15 | 51 | 0.0 | 6.4 | 0.00 | 0.00 | 0.00 | 25 | 1006.7 |
| 20260509003931 | 15 | 51 | 1.6 | 6.4 | 0.00 | 0.00 | 0.00 | 24 | 1006.8 |
| 20260509003841 | 15 | 51 | 1.6 | 6.4 | 0.00 | 0.00 | 0.00 | 24 | 1006.7 |
| 20260509003753 | 15 | 231 | 0.0 | 6.4 | 0.00 | 0.00 | 0.00 | 24 | 1006.7 |
| 20260509003643 | 15 | 236 | 0.0 | 6.4 | 0.00 | 0.00 | 0.00 | 24 | 1006.7 |
| 20260509003529 | 15 | 236 | 1.6 | 6.4 | 0.00 | 0.00 | 0.00 | 24 | 1006.7 |
| 20260509003425 | 15 | 155 | 1.6 | 6.4 | 0.00 | 0.00 | 0.00 | 23 | 1006.8 |
| 20260509003336 | 15 | 228 | 0.0 | 6.4 | 0.00 | 0.00 | 0.00 | 23 | 1006.7 |
| 20260509003226 | 15 | 99 | 0.0 | 4.8 | 0.00 | 0.00 | 0.00 | 23 | 1006.8 |
| 20260509003138 | 15 | 99 | 1.6 | 4.8 | 0.00 | 0.00 | 0.00 | 23 | 1006.8 |
| 20260509003044 | 15 | 99 | 1.6 | 4.8 | 0.00 | 0.00 | 0.00 | 23 | 1006.8 |
| 20260509002956 | 15 | 188 | 1.6 | 4.8 | 0.00 | 0.00 | 0.00 | 24 | 1006.8 |
| 20260509002825 | 15 | 232 | 1.6 | 4.8 | 0.00 | 0.00 | 0.00 | 23 | 1006.8 |
| 20260509002738 | 15 | 229 | 1.6 | 4.8 | 0.00 | 0.00 | 0.00 | 23 | 1006.8 |
| 20260509002629 | 15 | 220 | 3.2 | 4.8 | 0.00 | 0.00 | 0.00 | 23 | 1006.8 |
| 20260509002538 | 15 | 211 | 1.6 | 6.4 | 0.00 | 0.00 | 0.00 | 23 | 1006.8 |
| 20260509002452 | 15 | 215 | 0.0 | 6.4 | 0.00 | 0.00 | 0.00 | 23 | 1006.8 |
| 20260509002402 | 15 | 307 | 0.0 | 6.4 | 0.00 | 0.00 | 0.00 | 23 | 1006.8 |
| 20260509002232 | 15 | 307 | 0.0 | 6.4 | 0.00 | 0.00 | 0.00 | 23 | 1006.8 |
| 20260509002143 | 15 | 290 | 0.0 | 6.4 | 0.00 | 0.00 | 0.00 | 23 | 1006.8 |
| 20260509002057 | 15 | 222 | 0.0 | 6.4 | 0.00 | 0.00 | 0.00 | 22 | 1006.8 |
| 20260509002001 | 15 | 222 | 1.6 | 6.4 | 0.00 | 0.00 | 0.00 | 22 | 1006.8 |
| 20260509001832 | 15 | 222 | 3.2 | 6.4 | 0.00 | 0.00 | 0.00 | 22 | 1006.8 |
| 20260509001744 | 15 | 233 | 1.6 | 6.4 | 0.00 | 0.00 | 0.00 | 22 | 1006.8 |
| 20260509001634 | 15 | 139 | 1.6 | 6.4 | 0.00 | 0.00 | 0.00 | 22 | 1006.9 |
| 20260509001525 | 15 | 213 | 1.6 | 6.4 | 0.00 | 0.00 | 0.00 | 22 | 1006.8 |
| 20260509001436 | 15 | 270 | 1.6 | 6.4 | 0.00 | 0.00 | 0.00 | 23 | 1006.9 |
| 20260509001327 | 16 | 239 | 1.6 | 6.4 | 0.00 | 0.00 | 0.00 | 23 | 1006.8 |
| 20260509001239 | 16 | 210 | 1.6 | 6.4 | 0.00 | 0.00 | 0.00 | 23 | 1006.9 |
| 20260509001152 | 16 | 210 | 3.2 | 6.4 | 0.00 | 0.00 | 0.00 | 22 | 1006.9 |
| 20260509001057 | 16 | 238 | 1.6 | 6.4 | 0.00 | 0.00 | 0.00 | 22 | 1007.0 |
| 20260509000926 | 16 | 188 | 1.6 | 6.4 | 0.00 | 0.00 | 0.00 | 22 | 1006.8 |
| 20260509000838 | 16 | 217 | 3.2 | 6.4 | 0.00 | 0.00 | 0.00 | 22 | 1007.0 |
| 20260509000748 | 16 | 210 | 1.6 | 6.4 | 0.00 | 0.00 | 0.00 | 22 | 1006.9 |
| 20260509000700 | 16 | 229 | 1.6 | 6.4 | 0.00 | 0.00 | 0.00 | 22 | 1006.9 |
| 20260509000554 | 16 | 186 | 1.6 | 6.4 | 0.00 | 0.00 | 0.00 | 21 | 1006.9 |
| 20260509000500 | 16 | 186 | 1.6 | 6.4 | 0.00 | 0.00 | 0.00 | 22 | 1006.9 |
| 20260509000412 | 16 | 214 | 3.2 | 6.4 | 0.00 | 0.00 | 0.00 | 22 | 1006.9 |
| 20260509000322 | 16 | 176 | 3.2 | 6.4 | 0.00 | 0.00 | 0.00 | 21 | 1007.0 |
| 20260509000234 | 16 | 217 | 1.6 | 6.4 | 0.00 | 0.00 | 0.00 | 22 | 1006.9 |
| 20260509000124 | 16 | 233 | 1.6 | 3.2 | 0.00 | 0.00 | 0.00 | 21 | 1007.0 |
| 20260509000030 | 16 | 127 | 1.6 | 3.2 | 0.00 | 0.00 | 0.00 | 22 | 1007.0 |
| 20260508235921 | 16 | 219 | 0.0 | 3.2 | 0.00 | 0.00 | 0.00 | 22 | 1007.0 |
| 20260508235811 | 16 | 247 | 0.0 | 3.2 | 0.00 | 0.00 | 0.00 | 21 | 1007.0 |
| 20260508235723 | 16 | 250 | 1.6 | 3.2 | 0.00 | 0.00 | 0.00 | 21 | 1007.0 |
| 20260508235545 | 16 | 250 | 1.6 | 3.2 | 0.00 | 0.00 | 0.00 | 21 | 1007.0 |
| 20260508235455 | 16 | 143 | 0.0 | 3.2 | 0.00 | 0.00 | 0.00 | 21 | 1007.1 |
| 20260508235329 | 16 | 97 | 0.0 | 3.2 | 0.00 | 0.00 | 0.00 | 21 | 1007.1 |
| 20260508235239 | 16 | 80 | 1.6 | 3.2 | 0.00 | 0.00 | 0.00 | 21 | 1007.1 |
| 20260508235131 | 16 | 230 | 1.6 | 3.2 | 0.00 | 0.00 | 0.00 | 21 | 1007.1 |
| 20260508235038 | 16 | 193 | 1.6 | 3.2 | 0.00 | 0.00 | 0.00 | 21 | 1007.1 |
| 20260508234929 | 16 | 143 | 1.6 | 4.8 | 0.00 | 0.00 | 0.00 | 20 | 1007.1 |
| 20260508234841 | 16 | 89 | 1.6 | 6.4 | 0.00 | 0.00 | 0.00 | 20 | 1007.1 |
| 20260508234752 | 16 | 161 | 0.0 | 6.4 | 0.00 | 0.00 | 0.00 | 21 | 1007.2 |
| 20260508234643 | 16 | 161 | 0.0 | 6.4 | 0.00 | 0.00 | 0.00 | 21 | 1007.2 |
| 20260508234529 | 16 | 172 | 0.0 | 6.4 | 0.00 | 0.00 | 0.00 | 21 | 1007.2 |
| 20260508234441 | 16 | 110 | 1.6 | 6.4 | 0.00 | 0.00 | 0.00 | 21 | 1007.2 |
| 20260508234355 | 16 | 195 | 1.6 | 6.4 | 0.00 | 0.00 | 0.00 | 21 | 1007.2 |
| 20260508234226 | 16 | 231 | 1.6 | 6.4 | 0.00 | 0.00 | 0.00 | 20 | 1007.3 |
| 20260508234138 | 16 | 235 | 3.2 | 6.4 | 0.00 | 0.00 | 0.00 | 20 | 1007.3 |
| 20260508234043 | 16 | 210 | 3.2 | 6.4 | 0.00 | 0.00 | 0.00 | 20 | 1007.3 |
| 20260508233934 | 16 | 204 | 3.2 | 6.4 | 0.00 | 0.00 | 0.00 | 20 | 1007.4 |
| 20260508233844 | 16 | 178 | 3.2 | 6.4 | 0.00 | 0.00 | 0.00 | 20 | 1007.4 |
| 20260508233758 | 16 | 221 | 3.2 | 6.4 | 0.00 | 0.00 | 0.00 | 20 | 1007.4 |
| 20260508233709 | 16 | 214 | 1.6 | 6.4 | 0.00 | 0.00 | 0.00 | 21 | 1007.4 |
| 20260508233600 | 16 | 198 | 3.2 | 6.4 | 0.00 | 0.00 | 0.00 | 21 | 1007.5 |
| 20260508233429 | 16 | 213 | 4.8 | 6.4 | 0.00 | 0.00 | 0.00 | 20 | 1007.4 |
| 20260508233344 | 16 | 220 | 3.2 | 6.4 | 0.00 | 0.00 | 0.00 | 20 | 1007.5 |
| 20260508233235 | 16 | 207 | 3.2 | 6.4 | 0.00 | 0.00 | 0.00 | 21 | 1007.5 |
| 20260508233128 | 16 | 186 | 3.2 | 6.4 | 0.00 | 0.00 | 0.00 | 20 | 1007.6 |
| 20260508233034 | 16 | 243 | 1.6 | 6.4 | 0.00 | 0.00 | 0.00 | 21 | 1007.6 |
| 20260508232947 | 16 | 164 | 1.6 | 6.4 | 0.00 | 0.00 | 0.00 | 20 | 1007.6 |
| 20260508232837 | 16 | 191 | 1.6 | 6.4 | 0.00 | 0.00 | 0.00 | 20 | 1007.6 |
| 20260508232729 | 16 | 203 | 1.6 | 6.4 | 0.00 | 0.00 | 0.00 | 21 | 1007.6 |
| 20260508232640 | 16 | 224 | 0.0 | 1.6 | 0.00 | 0.00 | 0.00 | 21 | 1007.6 |
| 20260508232526 | 16 | 248 | 0.0 | 3.2 | 0.00 | 0.00 | 0.00 | 21 | 1007.7 |
| 20260508232443 | 16 | 248 | 0.0 | 3.2 | 0.00 | 0.00 | 0.00 | 21 | 1007.7 |
| 20260508232334 | 16 | 248 | 0.0 | 3.2 | 0.00 | 0.00 | 0.00 | 20 | 1007.7 |
| 20260508232224 | 16 | 216 | 0.0 | 3.2 | 0.00 | 0.00 | 0.00 | 21 | 1007.7 |
| 20260508232136 | 16 | 236 | 0.0 | 3.2 | 0.00 | 0.00 | 0.00 | 20 | 1007.8 |
| 20260508232042 | 16 | 246 | 0.0 | 3.2 | 0.00 | 0.00 | 0.00 | 20 | 1007.8 |
| 20260508231932 | 16 | 246 | 0.0 | 6.4 | 0.00 | 0.00 | 0.00 | 20 | 1007.8 |
| 20260508231844 | 16 | 240 | 0.0 | 6.4 | 0.00 | 0.00 | 0.00 | 21 | 1007.8 |
| 20260508231755 | 16 | 240 | 0.0 | 6.4 | 0.00 | 0.00 | 0.00 | 21 | 1007.8 |
| 20260508231645 | 16 | 224 | 0.0 | 6.4 | 0.00 | 0.00 | 0.00 | 21 | 1007.8 |
| 20260508231530 | 16 | 255 | 0.0 | 6.4 | 0.00 | 0.00 | 0.00 | 20 | 1007.8 |
| 20260508231444 | 16 | 255 | 1.6 | 8.0 | 0.00 | 0.00 | 0.00 | 20 | 1007.9 |
| 20260508231356 | 16 | 234 | 1.6 | 8.0 | 0.00 | 0.00 | 0.00 | 22 | 1007.9 |
| 20260508231246 | 16 | 218 | 3.2 | 8.0 | 0.00 | 0.00 | 0.00 | 21 | 1007.8 |
| 20260508231136 | 16 | 227 | 3.2 | 8.0 | 0.00 | 0.00 | 0.00 | 20 | 1007.8 |
| 20260508231042 | 16 | 181 | 3.2 | 8.0 | 0.00 | 0.00 | 0.00 | 21 | 1007.9 |
| 20260508230932 | 16 | 152 | 1.6 | 8.0 | 0.00 | 0.00 | 0.00 | 20 | 1007.8 |
| 20260508230843 | 16 | 231 | 1.6 | 8.0 | 0.00 | 0.00 | 0.00 | 20 | 1007.8 |
| 20260508230734 | 16 | 180 | 3.2 | 8.0 | 0.00 | 0.00 | 0.00 | 20 | 1007.9 |
| 20260508230625 | 16 | 191 | 3.2 | 9.7 | 0.00 | 0.00 | 0.00 | 21 | 1007.8 |
| 20260508230531 | 16 | 176 | 3.2 | 9.7 | 0.00 | 0.00 | 0.00 | 21 | 1007.8 |
| 20260508230426 | 16 | 207 | 3.2 | 9.7 | 0.00 | 0.00 | 0.00 | 20 | 1007.9 |
| 20260508230337 | 16 | 241 | 3.2 | 9.7 | 0.00 | 0.00 | 0.00 | 20 | 1007.8 |
| 20260508230226 | 16 | 238 | 1.6 | 9.7 | 0.00 | 0.00 | 0.00 | 21 | 1007.9 |
| 20260508230138 | 16 | 184 | 1.6 | 9.7 | 0.00 | 0.00 | 0.00 | 21 | 1007.9 |
| 20260508230044 | 16 | 212 | 1.6 | 11.3 | 0.00 | 0.00 | 0.00 | 22 | 1007.9 |
| 20260508225956 | 16 | 203 | 4.8 | 11.3 | 0.00 | 0.00 | 0.00 | 21 | 1007.9 |
| 20260508225845 | 16 | 200 | 6.4 | 11.3 | 0.00 | 0.00 | 0.00 | 21 | 1007.9 |
| 20260508225735 | 16 | 213 | 4.8 | 11.3 | 0.00 | 0.00 | 0.00 | 21 | 1007.9 |
| 20260508225625 | 16 | 218 | 4.8 | 11.3 | 0.00 | 0.00 | 0.00 | 21 | 1007.9 |
| 20260508225530 | 16 | 267 | 3.2 | 11.3 | 0.00 | 0.00 | 0.00 | 22 | 1007.9 |
| 20260508225425 | 16 | 172 | 1.6 | 11.3 | 0.00 | 0.00 | 0.00 | 22 | 1008.0 |
| 20260508225337 | 16 | 259 | 3.2 | 11.3 | 0.00 | 0.00 | 0.00 | 22 | 1008.0 |
| 20260508225227 | 16 | 136 | 4.8 | 11.3 | 0.00 | 0.00 | 0.00 | 22 | 1008.0 |
| 20260508225139 | 16 | 236 | 4.8 | 11.3 | 0.00 | 0.00 | 0.00 | 22 | 1007.9 |
| 20260508225025 | 16 | 187 | 4.8 | 9.7 | 0.00 | 0.00 | 0.00 | 22 | 1008.0 |
| 20260508224938 | 16 | 193 | 3.2 | 9.7 | 0.00 | 0.00 | 0.00 | 22 | 1008.0 |
| 20260508224849 | 16 | 158 | 1.6 | 9.7 | 0.00 | 0.00 | 0.00 | 22 | 1008.0 |
| 20260508224800 | 16 | 259 | 1.6 | 9.7 | 0.00 | 0.00 | 0.00 | 22 | 1008.0 |
| 20260508224652 | 16 | 259 | 1.6 | 9.7 | 0.00 | 0.00 | 0.00 | 22 | 1008.0 |
| 20260508224556 | 16 | 248 | 0.0 | 9.7 | 0.00 | 0.00 | 0.00 | 22 | 1008.0 |
| 20260508224450 | 16 | 223 | 3.2 | 9.7 | 0.00 | 0.00 | 0.00 | 22 | 1008.0 |
| 20260508224340 | 16 | 226 | 3.2 | 12.9 | 0.00 | 0.00 | 0.00 | 22 | 1008.0 |
| 20260508224232 | 16 | 232 | 4.8 | 12.9 | 0.00 | 0.00 | 0.00 | 22 | 1008.0 |
| 20260508224124 | 16 | 211 | 3.2 | 12.9 | 0.00 | 0.00 | 0.00 | 21 | 1007.9 |
| 20260508224030 | 16 | 238 | 1.6 | 12.9 | 0.00 | 0.00 | 0.00 | 22 | 1008.0 |
| 20260508223942 | 16 | 170 | 1.6 | 12.9 | 0.00 | 0.00 | 0.00 | 22 | 1007.9 |
| 20260508223834 | 16 | 197 | 1.6 | 12.9 | 0.00 | 0.00 | 0.00 | 22 | 1007.9 |
| 20260508223725 | 16 | 219 | 1.6 | 12.9 | 0.00 | 0.00 | 0.00 | 21 | 1007.9 |
| 20260508223636 | 16 | 243 | 3.2 | 12.9 | 0.00 | 0.00 | 0.00 | 21 | 1008.0 |
| 20260508223527 | 16 | 202 | 4.8 | 12.9 | 0.00 | 0.00 | 0.00 | 21 | 1008.0 |
| 20260508223438 | 16 | 236 | 3.2 | 9.7 | 0.00 | 0.00 | 0.00 | 21 | 1008.0 |
| 20260508223348 | 16 | 228 | 1.6 | 9.7 | 0.00 | 0.00 | 0.00 | 22 | 1008.0 |
| 20260508223259 | 17 | 217 | 1.6 | 9.7 | 0.00 | 0.00 | 0.00 | 22 | 1008.0 |
| 20260508223129 | 17 | 214 | 4.8 | 9.7 | 0.00 | 0.00 | 0.00 | 21 | 1008.0 |
| 20260508223036 | 17 | 241 | 4.8 | 9.7 | 0.00 | 0.00 | 0.00 | 21 | 1008.1 |
| 20260508222948 | 17 | 207 | 3.2 | 9.7 | 0.00 | 0.00 | 0.00 | 21 | 1007.9 |
| 20260508222859 | 17 | 241 | 3.2 | 8.0 | 0.00 | 0.00 | 0.00 | 21 | 1008.0 |
| 20260508222729 | 17 | 238 | 1.6 | 11.3 | 0.00 | 0.00 | 0.00 | 22 | 1008.1 |
| 20260508222639 | 17 | 279 | 1.6 | 11.3 | 0.00 | 0.00 | 0.00 | 21 | 1008.0 |
| 20260508222557 | 17 | 231 | 1.6 | 11.3 | 0.00 | 0.00 | 0.00 | 22 | 1008.0 |
| 20260508222504 | 17 | 102 | 3.2 | 11.3 | 0.00 | 0.00 | 0.00 | 21 | 1008.1 |
| 20260508222333 | 17 | 253 | 3.2 | 11.3 | 0.00 | 0.00 | 0.00 | 21 | 1008.1 |
| 20260508222225 | 17 | 226 | 1.6 | 11.3 | 0.00 | 0.00 | 0.00 | 21 | 1008.0 |
| 20260508222136 | 17 | 255 | 1.6 | 11.3 | 0.00 | 0.00 | 0.00 | 22 | 1008.0 |
| 20260508222042 | 17 | 311 | 1.6 | 11.3 | 0.00 | 0.00 | 0.00 | 22 | 1008.0 |
| 20260508221952 | 17 | 238 | 3.2 | 11.3 | 0.00 | 0.00 | 0.00 | 21 | 1008.1 |
| 20260508221842 | 17 | 202 | 4.8 | 11.3 | 0.00 | 0.00 | 0.00 | 20 | 1008.1 |
| 20260508221732 | 17 | 250 | 3.2 | 8.0 | 0.00 | 0.00 | 0.00 | 21 | 1008.1 |
| 20260508221626 | 17 | 268 | 3.2 | 8.0 | 0.00 | 0.00 | 0.00 | 21 | 1008.1 |
| 20260508221532 | 17 | 248 | 3.2 | 9.7 | 0.00 | 0.00 | 0.00 | 21 | 1008.2 |
| 20260508221444 | 17 | 243 | 3.2 | 9.7 | 0.00 | 0.00 | 0.00 | 21 | 1008.2 |
| 20260508221336 | 17 | 258 | 3.2 | 9.7 | 0.00 | 0.00 | 0.00 | 21 | 1008.1 |
| 20260508221226 | 17 | 213 | 3.2 | 9.7 | 0.00 | 0.00 | 0.00 | 22 | 1008.1 |
| 20260508221137 | 17 | 255 | 3.2 | 9.7 | 0.00 | 0.00 | 0.00 | 21 | 1008.2 |
| 20260508220928 | 17 | 257 | 3.2 | 9.7 | 0.00 | 0.00 | 0.00 | 21 | 1008.2 |
| 20260508220838 | 17 | 281 | 4.8 | 9.7 | 0.00 | 0.00 | 0.00 | 22 | 1008.2 |
| 20260508220749 | 17 | 193 | 6.4 | 9.7 | 0.00 | 0.00 | 0.00 | 21 | 1008.3 |
| 20260508220638 | 18 | 252 | 4.8 | 9.7 | 0.00 | 0.00 | 0.00 | 22 | 1008.2 |
| 20260508220528 | 18 | 229 | 3.2 | 9.7 | 0.00 | 0.00 | 0.00 | 22 | 1008.2 |
| 20260508220439 | 18 | 216 | 3.2 | 9.7 | 0.00 | 0.00 | 0.00 | 22 | 1008.3 |
| 20260508220353 | 18 | 223 | 3.2 | 9.7 | 0.00 | 0.00 | 0.00 | 22 | 1008.3 |
| 20260508220244 | 18 | 271 | 3.2 | 9.7 | 0.00 | 0.00 | 0.00 | 21 | 1008.2 |
| 20260508220154 | 18 | 290 | 3.2 | 9.7 | 0.00 | 0.00 | 0.00 | 21 | 1008.3 |
| 20260508220038 | 18 | 335 | 1.6 | 9.7 | 0.00 | 0.00 | 0.00 | 22 | 1008.3 |
| 20260508215953 | 18 | 203 | 1.6 | 9.7 | 0.00 | 0.00 | 0.00 | 23 | 1008.3 |
| 20260508215903 | 18 | 199 | 3.2 | 9.7 | 0.00 | 0.00 | 0.00 | 22 | 1008.2 |
| 20260508215732 | 18 | 301 | 1.6 | 8.0 | 0.00 | 0.00 | 0.00 | 23 | 1008.2 |
| 20260508215624 | 18 | 226 | 1.6 | 11.3 | 0.00 | 0.00 | 0.00 | 23 | 1008.3 |
| 20260508215529 | 18 | 139 | 1.6 | 11.3 | 0.00 | 0.00 | 0.00 | 23 | 1008.3 |
| 20260508215445 | 18 | 180 | 1.6 | 11.3 | 0.00 | 0.00 | 0.00 | 23 | 1008.3 |
| 20260508215335 | 18 | 279 | 3.2 | 11.3 | 0.00 | 0.00 | 0.00 | 22 | 1008.2 |
| 20260508215246 | 18 | 310 | 1.6 | 11.3 | 0.00 | 0.00 | 0.00 | 22 | 1008.3 |
| 20260508215157 | 18 | 255 | 3.2 | 11.3 | 0.00 | 0.00 | 0.00 | 22 | 1008.3 |
| 20260508215043 | 18 | 283 | 3.2 | 11.3 | 0.00 | 0.00 | 0.00 | 22 | 1008.2 |
| 20260508214933 | 18 | 297 | 4.8 | 11.3 | 0.00 | 0.00 | 0.00 | 22 | 1008.3 |
| 20260508214844 | 18 | 116 | 4.8 | 11.3 | 0.00 | 0.00 | 0.00 | 21 | 1008.2 |
| 20260508214755 | 18 | 203 | 3.2 | 9.7 | 0.00 | 0.00 | 0.00 | 22 | 1008.2 |
| 20260508214646 | 18 | 205 | 3.2 | 9.7 | 0.00 | 0.00 | 0.00 | 22 | 1008.3 |
| 20260508214553 | 18 | 224 | 3.2 | 9.7 | 0.00 | 0.00 | 0.00 | 22 | 1008.3 |
| 20260508214444 | 18 | 285 | 3.2 | 9.7 | 0.00 | 0.00 | 0.00 | 22 | 1008.2 |
| 20260508214339 | 18 | 68 | 1.6 | 9.7 | 0.00 | 0.00 | 0.00 | 22 | 1008.2 |
| 20260508214230 | 18 | 285 | 3.2 | 9.7 | 0.00 | 0.00 | 0.00 | 23 | 1008.3 |
| 20260508214140 | 18 | 291 | 4.8 | 9.7 | 0.00 | 0.00 | 0.00 | 23 | 1008.2 |
| 20260508214054 | 18 | 205 | 4.8 | 9.7 | 0.00 | 0.00 | 0.00 | 22 | 1008.2 |
| 20260508213959 | 18 | 230 | 3.2 | 9.7 | 0.00 | 0.00 | 0.00 | 23 | 1008.2 |
| 20260508213829 | 18 | 173 | 3.2 | 9.7 | 0.00 | 0.00 | 0.00 | 23 | 1008.3 |
| 20260508213739 | 18 | 258 | 1.6 | 9.7 | 0.00 | 0.00 | 0.00 | 23 | 1008.3 |
| 20260508213652 | 18 | 139 | 0.0 | 9.7 | 0.00 | 0.00 | 0.00 | 23 | 1008.3 |
| 20260508213602 | 18 | 267 | 3.2 | 9.7 | 0.00 | 0.00 | 0.00 | 23 | 1008.2 |
| 20260508213432 | 18 | 207 | 3.2 | 9.7 | 0.00 | 0.00 | 0.00 | 23 | 1008.3 |
| 20260508213326 | 18 | 229 | 3.2 | 8.0 | 0.00 | 0.00 | 0.00 | 23 | 1008.3 |
| 20260508213236 | 18 | 250 | 3.2 | 8.0 | 0.00 | 0.00 | 0.00 | 23 | 1008.2 |
| 20260508213148 | 18 | 233 | 4.8 | 8.0 | 0.00 | 0.00 | 0.00 | 22 | 1008.2 |
| 20260508213054 | 18 | 223 | 3.2 | 8.0 | 0.00 | 0.00 | 0.00 | 23 | 1008.3 |
| 20260508212944 | 18 | 140 | 1.6 | 8.0 | 0.00 | 0.00 | 0.00 | 23 | 1008.3 |
| 20260508212835 | 18 | 308 | 3.2 | 12.9 | 0.00 | 0.00 | 0.00 | 22 | 1008.3 |
| 20260508212746 | 18 | 330 | 3.2 | 12.9 | 0.00 | 0.00 | 0.00 | 22 | 1008.3 |
| 20260508212636 | 18 | 303 | 3.2 | 12.9 | 0.00 | 0.00 | 0.00 | 23 | 1008.4 |
| 20260508212543 | 18 | 349 | 3.2 | 12.9 | 0.00 | 0.00 | 0.00 | 22 | 1008.4 |
| 20260508212434 | 18 | 26 | 1.6 | 12.9 | 0.00 | 0.00 | 0.00 | 22 | 1008.5 |
| 20260508212348 | 18 | 321 | 1.6 | 12.9 | 0.00 | 0.00 | 0.00 | 23 | 1008.4 |
| 20260508212301 | 17 | 234 | 1.6 | 12.9 | 0.00 | 0.00 | 0.00 | 23 | 1008.4 |
| 20260508212213 | 17 | 260 | 3.2 | 12.9 | 0.00 | 0.00 | 0.00 | 22 | 1008.4 |
| 20260508212042 | 18 | 232 | 4.8 | 12.9 | 0.00 | 0.00 | 0.00 | 22 | 1008.4 |
| 20260508211933 | 18 | 295 | 4.8 | 11.3 | 0.00 | 0.00 | 0.00 | 21 | 1008.5 |
| 20260508211844 | 18 | 241 | 3.2 | 11.3 | 0.00 | 0.00 | 0.00 | 21 | 1008.5 |
| 20260508211735 | 18 | 160 | 3.2 | 11.3 | 0.00 | 0.00 | 0.00 | 22 | 1008.5 |
| 20260508211626 | 18 | 225 | 3.2 | 11.3 | 0.00 | 0.00 | 0.00 | 23 | 1008.5 |
| 20260508211532 | 18 | 209 | 3.2 | 11.3 | 0.00 | 0.00 | 0.00 | 23 | 1008.5 |
| 20260508211427 | 18 | 245 | 1.6 | 9.7 | 0.00 | 0.00 | 0.00 | 22 | 1008.5 |
| 20260508211337 | 18 | 319 | 3.2 | 9.7 | 0.00 | 0.00 | 0.00 | 22 | 1008.5 |
| 20260508211229 | 18 | 233 | 4.8 | 9.7 | 0.00 | 0.00 | 0.00 | 21 | 1008.5 |
| 20260508211140 | 18 | 262 | 3.2 | 9.7 | 0.00 | 0.00 | 0.00 | 21 | 1008.5 |
| 20260508211027 | 18 | 158 | 4.8 | 9.7 | 0.00 | 0.00 | 0.00 | 21 | 1008.5 |
| 20260508210937 | 18 | 212 | 4.8 | 9.7 | 0.00 | 0.00 | 0.00 | 22 | 1008.5 |
| 20260508210827 | 18 | 180 | 4.8 | 9.7 | 0.00 | 0.00 | 0.00 | 22 | 1008.5 |
| 20260508210739 | 18 | 169 | 4.8 | 11.3 | 0.00 | 0.00 | 0.00 | 22 | 1008.5 |
| 20260508210630 | 18 | 139 | 4.8 | 11.3 | 0.00 | 0.00 | 0.00 | 22 | 1008.5 |
| 20260508210539 | 18 | 211 | 4.8 | 11.3 | 0.00 | 0.00 | 0.00 | 22 | 1008.5 |
| 20260508210430 | 18 | 220 | 4.8 | 11.3 | 0.00 | 0.00 | 0.00 | 23 | 1008.5 |
| 20260508210340 | 18 | 146 | 3.2 | 11.3 | 0.00 | 0.00 | 0.00 | 23 | 1008.5 |
| 20260508210254 | 18 | 238 | 3.2 | 11.3 | 0.00 | 0.00 | 0.00 | 23 | 1008.5 |
| 20260508210206 | 18 | 193 | 3.2 | 11.3 | 0.00 | 0.00 | 0.00 | 23 | 1008.5 |
| 20260508210118 | 18 | 262 | 4.8 | 11.3 | 0.00 | 0.00 | 0.00 | 22 | 1008.5 |
| 20260508210002 | 18 | 197 | 6.4 | 11.3 | 0.00 | 0.00 | 0.00 | 21 | 1008.5 |
| 20260508205913 | 18 | 124 | 6.4 | 11.3 | 0.00 | 0.00 | 0.00 | 22 | 1008.6 |
| 20260508205802 | 18 | 217 | 4.8 | 12.9 | 0.00 | 0.00 | 0.00 | 23 | 1008.6 |
| 20260508205654 | 18 | 213 | 3.2 | 12.9 | 0.00 | 0.00 | 0.00 | 23 | 1008.6 |
| 20260508205604 | 18 | 156 | 4.8 | 12.9 | 0.00 | 0.00 | 0.00 | 23 | 1008.6 |
| 20260508205438 | 18 | 117 | 3.2 | 12.9 | 0.00 | 0.00 | 0.00 | 23 | 1008.6 |
| 20260508205352 | 18 | 180 | 1.6 | 12.9 | 0.00 | 0.00 | 0.00 | 23 | 1008.6 |
| 20260508205305 | 18 | 298 | 1.6 | 12.9 | 0.00 | 0.00 | 0.00 | 23 | 1008.6 |
| 20260508205215 | 18 | 306 | 1.6 | 12.9 | 0.00 | 0.00 | 0.00 | 23 | 1008.7 |
| 20260508205125 | 18 | 309 | 3.2 | 12.9 | 0.00 | 0.00 | 0.00 | 23 | 1008.6 |
| 20260508204927 | 18 | 163 | 8.0 | 12.9 | 0.00 | 0.00 | 0.00 | 23 | 1008.7 |
| 20260508204838 | 18 | 203 | 4.8 | 12.9 | 0.00 | 0.00 | 0.00 | 23 | 1008.6 |
| 20260508204729 | 18 | 249 | 3.2 | 11.3 | 0.00 | 0.00 | 0.00 | 23 | 1008.7 |
| 20260508204640 | 18 | 241 | 4.8 | 11.3 | 0.00 | 0.00 | 0.00 | 23 | 1008.6 |
| 20260508204525 | 18 | 198 | 4.8 | 11.3 | 0.00 | 0.00 | 0.00 | 23 | 1008.6 |
| 20260508204439 | 18 | 188 | 4.8 | 11.3 | 0.00 | 0.00 | 0.00 | 23 | 1008.7 |
| 20260508204350 | 18 | 230 | 3.2 | 11.3 | 0.00 | 0.00 | 0.00 | 23 | 1008.7 |
| 20260508204240 | 18 | 233 | 4.8 | 11.3 | 0.00 | 0.00 | 0.00 | 23 | 1008.7 |
| 20260508204151 | 18 | 283 | 4.8 | 11.3 | 0.00 | 0.00 | 0.00 | 23 | 1008.7 |
| 20260508204038 | 18 | 188 | 3.2 | 12.9 | 0.00 | 0.00 | 0.00 | 23 | 1008.7 |
| 20260508203949 | 18 | 219 | 3.2 | 12.9 | 0.00 | 0.00 | 0.00 | 24 | 1008.7 |
| 20260508203901 | 18 | 214 | 6.4 | 12.9 | 0.00 | 0.00 | 0.00 | 24 | 1008.7 |
| 20260508203751 | 18 | 229 | 3.2 | 12.9 | 0.00 | 0.00 | 0.00 | 24 | 1008.7 |
| 20260508203642 | 18 | 245 | 1.6 | 12.9 | 0.00 | 0.00 | 0.00 | 24 | 1008.7 |
| 20260508203528 | 18 | 229 | 3.2 | 12.9 | 0.00 | 0.00 | 0.00 | 24 | 1008.8 |
| 20260508203440 | 18 | 211 | 6.4 | 12.9 | 0.00 | 0.00 | 0.00 | 23 | 1008.8 |
| 20260508203336 | 18 | 219 | 6.4 | 12.9 | 0.00 | 0.00 | 0.00 | 23 | 1008.9 |
| 20260508203249 | 18 | 229 | 6.4 | 12.9 | 0.00 | 0.00 | 0.00 | 23 | 1008.9 |
| 20260508203200 | 18 | 163 | 4.8 | 8.0 | 0.00 | 0.00 | 0.00 | 23 | 1008.8 |
| 20260508203025 | 18 | 289 | 3.2 | 6.4 | 0.00 | 0.00 | 0.00 | 23 | 1008.9 |
| 20260508202936 | 18 | 238 | 1.6 | 11.3 | 0.00 | 0.00 | 0.00 | 24 | 1008.8 |
| 20260508202827 | 18 | 200 | 3.2 | 11.3 | 0.00 | 0.00 | 0.00 | 23 | 1008.8 |
| 20260508202737 | 18 | 283 | 3.2 | 11.3 | 0.00 | 0.00 | 0.00 | 24 | 1008.9 |
| 20260508202647 | 18 | 302 | 1.6 | 16.1 | 0.00 | 0.00 | 0.00 | 24 | 1008.9 |
| 20260508202558 | 18 | 297 | 1.6 | 16.1 | 0.00 | 0.00 | 0.00 | 23 | 1008.9 |
| 20260508202506 | 18 | 286 | 1.6 | 16.1 | 0.00 | 0.00 | 0.00 | 25 | 1009.0 |
| 20260508202355 | 18 | 143 | 1.6 | 16.1 | 0.00 | 0.00 | 0.00 | 24 | 1008.9 |
| 20260508202229 | 18 | 308 | 4.8 | 16.1 | 0.00 | 0.00 | 0.00 | 26 | 1009.0 |
| 20260508202141 | 18 | 215 | 6.4 | 16.1 | 0.00 | 0.00 | 0.00 | 25 | 1008.9 |
| 20260508202048 | 18 | 179 | 8.0 | 16.1 | 0.00 | 0.00 | 0.00 | 25 | 1008.9 |
| 20260508201958 | 18 | 191 | 8.0 | 16.1 | 0.00 | 0.00 | 0.00 | 25 | 1008.9 |
| 20260508201829 | 18 | 212 | 6.4 | 16.1 | 0.00 | 0.00 | 0.00 | 25 | 1008.9 |
| 20260508201740 | 18 | 171 | 6.4 | 16.1 | 0.00 | 0.00 | 0.00 | 23 | 1009.0 |
| 20260508201651 | 18 | 130 | 6.4 | 16.1 | 0.00 | 0.00 | 0.00 | 23 | 1008.9 |
| 20260508201536 | 18 | 212 | 6.4 | 16.1 | 0.00 | 0.00 | 0.00 | 24 | 1009.0 |
| 20260508201427 | 18 | 229 | 8.0 | 16.1 | 0.00 | 0.00 | 0.00 | 23 | 1008.9 |
| 20260508201339 | 18 | 240 | 6.4 | 16.1 | 0.00 | 0.00 | 0.00 | 23 | 1008.9 |
| 20260508201233 | 18 | 163 | 4.8 | 14.5 | 0.00 | 0.00 | 0.00 | 24 | 1009.0 |
| 20260508201145 | 18 | 194 | 4.8 | 14.5 | 0.00 | 0.00 | 0.00 | 24 | 1008.9 |
| 20260508201058 | 18 | 194 | 4.8 | 14.5 | 0.00 | 0.00 | 0.00 | 23 | 1008.9 |
| 20260508201003 | 18 | 205 | 1.6 | 11.3 | 0.00 | 0.00 | 0.00 | 23 | 1009.0 |
| 20260508200833 | 18 | 240 | 1.6 | 14.5 | 0.00 | 0.00 | 0.00 | 25 | 1009.0 |
| 20260508200724 | 18 | 264 | 1.6 | 16.1 | 0.00 | 0.00 | 0.00 | 24 | 1009.1 |
| 20260508200635 | 17 | 312 | 1.6 | 16.1 | 0.00 | 0.00 | 0.00 | 24 | 1009.1 |
| 20260508200542 | 17 | 287 | 1.6 | 16.1 | 0.00 | 0.00 | 0.00 | 25 | 1009.1 |
| 20260508200433 | 17 | 262 | 3.2 | 16.1 | 0.00 | 0.00 | 0.00 | 24 | 1009.1 |
| 20260508200349 | 17 | 353 | 3.2 | 16.1 | 0.00 | 0.00 | 0.00 | 24 | 1009.1 |
| 20260508200300 | 17 | 347 | 3.2 | 16.1 | 0.00 | 0.00 | 0.00 | 26 | 1009.1 |
| 20260508200130 | 17 | 232 | 6.4 | 16.1 | 0.00 | 0.00 | 0.00 | 25 | 1009.1 |
| 20260508200036 | 18 | 230 | 6.4 | 16.1 | 0.00 | 0.00 | 0.00 | 24 | 1009.2 |
| 20260508195946 | 18 | 196 | 4.8 | 9.7 | 0.00 | 0.00 | 0.00 | 24 | 1009.1 |
| 20260508195835 | 18 | 281 | 3.2 | 9.7 | 0.00 | 0.00 | 0.00 | 24 | 1009.1 |
| 20260508195727 | 18 | 294 | 3.2 | 9.7 | 0.00 | 0.00 | 0.00 | 25 | 1009.2 |
| 20260508195638 | 18 | 236 | 3.2 | 12.9 | 0.00 | 0.00 | 0.00 | 26 | 1009.1 |
| 20260508195543 | 18 | 313 | 1.6 | 12.9 | 0.00 | 0.00 | 0.00 | 26 | 1009.1 |
| 20260508195430 | 18 | 314 | 1.6 | 12.9 | 0.00 | 0.00 | 0.00 | 25 | 1009.2 |
| 20260508195325 | 18 | 31 | 1.6 | 12.9 | 0.00 | 0.00 | 0.00 | 25 | 1009.2 |
| 20260508195236 | 17 | 316 | 3.2 | 12.9 | 0.00 | 0.00 | 0.00 | 26 | 1009.2 |
| 20260508195147 | 17 | 314 | 4.8 | 12.9 | 0.00 | 0.00 | 0.00 | 25 | 1009.2 |
| 20260508195100 | 17 | 309 | 4.8 | 12.9 | 0.00 | 0.00 | 0.00 | 25 | 1009.2 |
| 20260508194944 | 17 | 228 | 6.4 | 12.9 | 0.00 | 0.00 | 0.00 | 27 | 1009.3 |
| 20260508194856 | 17 | 213 | 6.4 | 12.9 | 0.00 | 0.00 | 0.00 | 26 | 1009.3 |
| 20260508194726 | 17 | 218 | 8.0 | 12.9 | 0.00 | 0.00 | 0.00 | 26 | 1009.4 |
| 20260508194637 | 18 | 143 | 6.4 | 11.3 | 0.00 | 0.00 | 0.00 | 25 | 1009.2 |
| 20260508194543 | 18 | 155 | 4.8 | 11.3 | 0.00 | 0.00 | 0.00 | 26 | 1009.4 |
| 20260508194434 | 18 | 296 | 4.8 | 11.3 | 0.00 | 0.00 | 0.00 | 27 | 1009.4 |
| 20260508194349 | 18 | 203 | 6.4 | 11.3 | 0.00 | 0.00 | 0.00 | 27 | 1009.4 |
| 20260508194239 | 18 | 221 | 4.8 | 11.3 | 0.00 | 0.00 | 0.00 | 27 | 1009.4 |
| 20260508194150 | 18 | 230 | 6.4 | 12.9 | 0.00 | 0.00 | 0.00 | 27 | 1009.4 |
| 20260508194057 | 18 | 225 | 4.8 | 12.9 | 0.00 | 0.00 | 0.00 | 27 | 1009.4 |
| 20260508193945 | 18 | 209 | 4.8 | 12.9 | 0.00 | 0.00 | 0.00 | 27 | 1009.4 |
| 20260508193859 | 18 | 224 | 6.4 | 12.9 | 0.00 | 0.00 | 0.00 | 27 | 1009.4 |
| 20260508193810 | 18 | 238 | 3.2 | 12.9 | 0.00 | 0.00 | 0.00 | 27 | 1009.4 |
| 20260508193700 | 18 | 226 | 1.6 | 12.9 | 0.00 | 0.00 | 0.00 | 28 | 1009.4 |
| 20260508193525 | 18 | 292 | 3.2 | 12.9 | 0.00 | 0.00 | 0.00 | 27 | 1009.4 |
| 20260508193435 | 18 | 252 | 3.2 | 12.9 | 0.00 | 0.00 | 0.00 | 29 | 1009.5 |
| 20260508193348 | 18 | 242 | 4.8 | 12.9 | 0.00 | 0.00 | 0.00 | 28 | 1009.5 |
| 20260508193258 | 18 | 238 | 4.8 | 12.9 | 0.00 | 0.00 | 0.00 | 28 | 1009.6 |
| 20260508193131 | 18 | 290 | 3.2 | 8.0 | 0.00 | 0.00 | 0.00 | 27 | 1009.6 |
| 20260508193037 | 18 | 291 | 3.2 | 8.0 | 0.00 | 0.00 | 0.00 | 26 | 1009.5 |
| 20260508192947 | 18 | 288 | 3.2 | 9.7 | 0.00 | 0.00 | 0.00 | 27 | 1009.6 |
| 20260508192858 | 18 | 308 | 3.2 | 9.7 | 0.00 | 0.00 | 0.00 | 27 | 1009.5 |
| 20260508192727 | 18 | 301 | 1.6 | 12.9 | 0.00 | 0.00 | 0.00 | 28 | 1009.5 |
| 20260508192638 | 18 | 266 | 1.6 | 12.9 | 0.00 | 0.00 | 0.00 | 28 | 1009.5 |
| 20260508192543 | 18 | 284 | 1.6 | 12.9 | 0.00 | 0.00 | 0.00 | 29 | 1009.5 |
| 20260508192435 | 18 | 281 | 3.2 | 12.9 | 0.00 | 0.00 | 0.00 | 28 | 1009.5 |
| 20260508192327 | 18 | 143 | 1.6 | 12.9 | 0.00 | 0.00 | 0.00 | 28 | 1009.5 |
| 20260508192241 | 18 | 200 | 1.6 | 12.9 | 0.00 | 0.00 | 0.00 | 28 | 1009.6 |
| 20260508192154 | 18 | 212 | 3.2 | 12.9 | 0.00 | 0.00 | 0.00 | 27 | 1009.6 |
| 20260508192105 | 18 | 259 | 3.2 | 12.9 | 0.00 | 0.00 | 0.00 | 27 | 1009.6 |
| 20260508191956 | 18 | 215 | 3.2 | 12.9 | 0.00 | 0.00 | 0.00 | 29 | 1009.6 |
| 20260508191826 | 18 | 170 | 1.6 | 9.7 | 0.00 | 0.00 | 0.00 | 26 | 1009.6 |
| 20260508191538 | 17 | 13 | 3.2 | 9.7 | 0.00 | 0.00 | 0.00 | 26 | 1009.7 |
| 20260508191428 | 17 | 302 | 1.6 | 9.7 | 0.00 | 0.00 | 0.00 | 26 | 1009.8 |
| 20260508191340 | 17 | 290 | 3.2 | 9.7 | 0.00 | 0.00 | 0.00 | 26 | 1009.8 |
| 20260508191230 | 17 | 243 | 3.2 | 9.7 | 0.00 | 0.00 | 0.00 | 25 | 1009.7 |
| 20260508191124 | 18 | 288 | 4.8 | 9.7 | 0.00 | 0.00 | 0.00 | 24 | 1009.8 |
| 20260508191029 | 18 | 221 | 3.2 | 9.7 | 0.00 | 0.00 | 0.00 | 28 | 1009.7 |
| 20260508190941 | 18 | 210 | 3.2 | 9.7 | 0.00 | 0.00 | 0.00 | 28 | 1009.7 |
| 20260508190832 | 17 | 237 | 1.6 | 9.7 | 0.00 | 0.00 | 0.00 | 25 | 1009.7 |
| 20260508190744 | 17 | 323 | 1.6 | 9.7 | 0.00 | 0.00 | 0.00 | 23 | 1009.7 |
| 20260508190635 | 17 | 351 | 1.6 | 9.7 | 0.00 | 0.00 | 0.00 | 25 | 1009.7 |
| 20260508190540 | 17 | 318 | 1.6 | 11.3 | 0.00 | 0.00 | 0.00 | 25 | 1009.8 |
| 20260508190431 | 18 | 2 | 3.2 | 11.3 | 0.00 | 0.00 | 0.00 | 25 | 1009.8 |
| 20260508190344 | 18 | 349 | 1.6 | 11.3 | 0.00 | 0.00 | 0.00 | 25 | 1009.8 |
| 20260508190237 | 18 | 338 | 3.2 | 11.3 | 0.00 | 0.00 | 0.00 | 25 | 1009.8 |
| 20260508190151 | 18 | 286 | 3.2 | 11.3 | 0.00 | 0.00 | 0.00 | 23 | 1009.8 |
| 20260508185930 | 18 | 137 | 3.2 | 11.3 | 0.00 | 0.00 | 0.00 | 24 | 1009.8 |
| 20260508185730 | 18 | 182 | 6.4 | 11.3 | 0.00 | 0.00 | 0.00 | 23 | 1009.8 |
| 20260508185642 | 18 | 203 | 4.8 | 9.7 | 0.00 | 0.00 | 0.00 | 23 | 1009.8 |
| 20260508185555 | 18 | 194 | 3.2 | 6.4 | 0.00 | 0.00 | 0.00 | 23 | 1009.8 |
| 20260508185439 | 18 | 304 | 3.2 | 9.7 | 0.00 | 0.00 | 0.00 | 25 | 1009.8 |
| 20260508185351 | 18 | 183 | 3.2 | 9.7 | 0.00 | 0.00 | 0.00 | 24 | 1009.8 |
| 20260508185240 | 18 | 316 | 3.2 | 9.7 | 0.00 | 0.00 | 0.00 | 26 | 1009.9 |
| 20260508185131 | 18 | 262 | 1.6 | 9.7 | 0.00 | 0.00 | 0.00 | 25 | 1009.8 |
| 20260508185041 | 18 | 349 | 1.6 | 9.7 | 0.00 | 0.00 | 0.00 | 27 | 1009.8 |
| 20260508184932 | 18 | 351 | 1.6 | 9.7 | 0.00 | 0.00 | 0.00 | 27 | 1009.8 |
| 20260508184844 | 18 | 214 | 1.6 | 9.7 | 0.00 | 0.00 | 0.00 | 26 | 1009.8 |
| 20260508184734 | 17 | 247 | 3.2 | 9.7 | 0.00 | 0.00 | 0.00 | 26 | 1009.9 |
| 20260508184626 | 17 | 236 | 3.2 | 9.7 | 0.00 | 0.00 | 0.00 | 26 | 1009.9 |
| 20260508184532 | 17 | 95 | 3.2 | 9.7 | 0.00 | 0.00 | 0.00 | 25 | 1009.9 |
| 20260508184444 | 17 | 302 | 3.2 | 9.7 | 0.00 | 0.00 | 0.00 | 23 | 1009.9 |
| 20260508184333 | 17 | 295 | 3.2 | 9.7 | 0.00 | 0.00 | 0.00 | 23 | 1009.8 |
| 20260508184225 | 18 | 340 | 4.8 | 9.7 | 0.00 | 0.00 | 0.00 | 23 | 1009.9 |
| 20260508184140 | 18 | 265 | 4.8 | 9.7 | 0.00 | 0.00 | 0.00 | 23 | 1009.9 |
| 20260508184026 | 18 | 290 | 3.2 | 9.7 | 0.00 | 0.00 | 0.00 | 22 | 1009.8 |
| 20260508183937 | 18 | 289 | 1.6 | 8.0 | 0.00 | 0.00 | 0.00 | 24 | 1009.9 |
| 20260508183827 | 18 | 290 | 1.6 | 9.7 | 0.00 | 0.00 | 0.00 | 25 | 1009.9 |
| 20260508183740 | 18 | 212 | 1.6 | 9.7 | 0.00 | 0.00 | 0.00 | 24 | 1009.9 |
| 20260508183630 | 18 | 184 | 3.2 | 11.3 | 0.00 | 0.00 | 0.00 | 23 | 1009.9 |
| 20260508183535 | 18 | 315 | 3.2 | 14.5 | 0.00 | 0.00 | 0.00 | 23 | 1009.9 |
| 20260508183446 | 18 | 283 | 3.2 | 14.5 | 0.00 | 0.00 | 0.00 | 25 | 1009.9 |
| 20260508183337 | 18 | 297 | 3.2 | 17.7 | 0.00 | 0.00 | 0.00 | 27 | 1010.0 |
| 20260508183248 | 18 | 278 | 1.6 | 17.7 | 0.00 | 0.00 | 0.00 | 26 | 1010.0 |
| 20260508183143 | 18 | 258 | 3.2 | 17.7 | 0.00 | 0.00 | 0.00 | 26 | 1010.0 |
| 20260508183046 | 18 | 208 | 3.2 | 17.7 | 0.00 | 0.00 | 0.00 | 26 | 1010.0 |
| 20260508182936 | 17 | 228 | 3.2 | 17.7 | 0.00 | 0.00 | 0.00 | 25 | 1010.0 |
| 20260508182827 | 18 | 359 | 4.8 | 17.7 | 0.00 | 0.00 | 0.00 | 24 | 1010.0 |
| 20260508182738 | 18 | 206 | 6.4 | 17.7 | 0.00 | 0.00 | 0.00 | 25 | 1010.0 |
| 20260508182652 | 18 | 229 | 6.4 | 17.7 | 0.00 | 0.00 | 0.00 | 25 | 1010.0 |
| 20260508182602 | 18 | 208 | 4.8 | 17.7 | 0.00 | 0.00 | 0.00 | 25 | 1010.0 |
| 20260508182433 | 18 | 214 | 1.6 | 11.3 | 0.00 | 0.00 | 0.00 | 26 | 1010.0 |
| 20260508182344 | 18 | 34 | 1.6 | 11.3 | 0.00 | 0.00 | 0.00 | 26 | 1010.0 |
| 20260508182235 | 18 | 12 | 1.6 | 11.3 | 0.00 | 0.00 | 0.00 | 26 | 1010.0 |
| 20260508182130 | 18 | 332 | 1.6 | 11.3 | 0.00 | 0.00 | 0.00 | 26 | 1010.0 |
| 20260508182036 | 18 | 359 | 3.2 | 11.3 | 0.00 | 0.00 | 0.00 | 27 | 1010.0 |
| 20260508181928 | 18 | 215 | 4.8 | 11.3 | 0.00 | 0.00 | 0.00 | 26 | 1010.1 |
| 20260508181839 | 18 | 210 | 3.2 | 8.0 | 0.00 | 0.00 | 0.00 | 27 | 1010.0 |
| 20260508181750 | 18 | 308 | 1.6 | 8.0 | 0.00 | 0.00 | 0.00 | 25 | 1010.0 |
| 20260508181639 | 18 | 238 | 1.6 | 11.3 | 0.00 | 0.00 | 0.00 | 26 | 1010.0 |
| 20260508181547 | 18 | 313 | 1.6 | 11.3 | 0.00 | 0.00 | 0.00 | 28 | 1010.1 |
| 20260508181457 | 18 | 6 | 3.2 | 11.3 | 0.00 | 0.00 | 0.00 | 24 | 1010.0 |
| 20260508181326 | 18 | 310 | 3.2 | 11.3 | 0.00 | 0.00 | 0.00 | 24 | 1010.1 |
| 20260508181238 | 18 | 349 | 1.6 | 11.3 | 0.00 | 0.00 | 0.00 | 27 | 1010.1 |
| 20260508181133 | 18 | 146 | 1.6 | 11.3 | 0.00 | 0.00 | 0.00 | 27 | 1010.1 |
| 20260508181039 | 18 | 101 | 3.2 | 11.3 | 0.00 | 0.00 | 0.00 | 26 | 1010.1 |
| 20260508180949 | 18 | 216 | 4.8 | 11.3 | 0.00 | 0.00 | 0.00 | 26 | 1010.1 |
| 20260508180901 | 18 | 196 | 4.8 | 11.3 | 0.00 | 0.00 | 0.00 | 26 | 1010.1 |
| 20260508180813 | 18 | 142 | 3.2 | 11.3 | 0.00 | 0.00 | 0.00 | 26 | 1010.1 |
| 20260508180703 | 18 | 250 | 3.2 | 11.3 | 0.00 | 0.00 | 0.00 | 25 | 1010.1 |
| 20260508180615 | 18 | 305 | 1.6 | 11.3 | 0.00 | 0.00 | 0.00 | 25 | 1010.1 |
| 20260508180459 | 18 | 243 | 1.6 | 11.3 | 0.00 | 0.00 | 0.00 | 25 | 1010.2 |
| 20260508180351 | 17 | 229 | 3.2 | 11.3 | 0.00 | 0.00 | 0.00 | 26 | 1010.2 |
| 20260508180302 | 17 | 129 | 3.2 | 11.3 | 0.00 | 0.00 | 0.00 | 25 | 1010.2 |
| 20260508180151 | 17 | 137 | 4.8 | 9.7 | 0.00 | 0.00 | 0.00 | 24 | 1010.2 |
| 20260508180037 | 17 | 219 | 3.2 | 9.7 | 0.00 | 0.00 | 0.00 | 24 | 1010.2 |
| 20260508175931 | 18 | 236 | 1.6 | 9.7 | 0.00 | 0.00 | 0.00 | 24 | 1010.2 |
| 20260508175843 | 18 | 296 | 1.6 | 9.7 | 0.00 | 0.00 | 0.00 | 24 | 1010.2 |
| 20260508175733 | 18 | 255 | 1.6 | 11.3 | 0.00 | 0.00 | 0.00 | 24 | 1010.1 |
| 20260508175625 | 18 | 44 | 3.2 | 11.3 | 0.00 | 0.00 | 0.00 | 23 | 1010.2 |
| 20260508175529 | 18 | 286 | 3.2 | 11.3 | 0.00 | 0.00 | 0.00 | 23 | 1010.2 |
| 20260508175441 | 18 | 300 | 3.2 | 11.3 | 0.00 | 0.00 | 0.00 | 23 | 1010.2 |
| 20260508175352 | 18 | 331 | 3.2 | 11.3 | 0.00 | 0.00 | 0.00 | 22 | 1010.2 |
| 20260508175243 | 18 | 285 | 3.2 | 11.3 | 0.00 | 0.00 | 0.00 | 25 | 1010.2 |
| 20260508175135 | 18 | 227 | 3.2 | 11.3 | 0.00 | 0.00 | 0.00 | 25 | 1010.2 |
| 20260508175025 | 18 | 301 | 3.2 | 11.3 | 0.00 | 0.00 | 0.00 | 25 | 1010.2 |
| 20260508174937 | 18 | 94 | 4.8 | 11.3 | 0.00 | 0.00 | 0.00 | 25 | 1010.2 |
| 20260508174847 | 18 | 315 | 3.2 | 8.0 | 0.00 | 0.00 | 0.00 | 24 | 1010.2 |
| 20260508174759 | 18 | 184 | 1.6 | 4.8 | 0.00 | 0.00 | 0.00 | 24 | 1010.3 |
| 20260508174649 | 18 | 79 | 1.6 | 4.8 | 0.00 | 0.00 | 0.00 | 25 | 1010.3 |
| 20260508174600 | 18 | 122 | 1.6 | 9.7 | 0.00 | 0.00 | 0.00 | 25 | 1010.2 |
| 20260508174431 | 18 | 288 | 1.6 | 9.7 | 0.00 | 0.00 | 0.00 | 26 | 1010.3 |
| 20260508174343 | 18 | 151 | 1.6 | 9.7 | 0.00 | 0.00 | 0.00 | 25 | 1010.3 |
| 20260508174234 | 18 | 124 | 0.0 | 9.7 | 0.00 | 0.00 | 0.00 | 26 | 1010.3 |
| 20260508174144 | 18 | 239 | 0.0 | 9.7 | 0.00 | 0.00 | 0.00 | 26 | 1010.3 |
| 20260508174038 | 17 | 193 | 1.6 | 9.7 | 0.00 | 0.00 | 0.00 | 26 | 1010.4 |
| 20260508173929 | 17 | 182 | 3.2 | 11.3 | 0.00 | 0.00 | 0.00 | 24 | 1010.4 |
| 20260508173839 | 17 | 209 | 3.2 | 11.3 | 0.00 | 0.00 | 0.00 | 23 | 1010.3 |
| 20260508173729 | 17 | 253 | 4.8 | 11.3 | 0.00 | 0.00 | 0.00 | 24 | 1010.4 |
| 20260508173640 | 17 | 236 | 1.6 | 11.3 | 0.00 | 0.00 | 0.00 | 24 | 1010.4 |
| 20260508173525 | 17 | 302 | 3.2 | 11.3 | 0.00 | 0.00 | 0.00 | 24 | 1010.5 |
| 20260508173438 | 17 | 274 | 3.2 | 11.3 | 0.00 | 0.00 | 0.00 | 23 | 1010.5 |
| 20260508173210 | 17 | 166 | 4.8 | 12.9 | 0.00 | 0.00 | 0.00 | 23 | 1010.5 |
| 20260508172925 | 17 | 300 | 6.4 | 12.9 | 0.00 | 0.00 | 0.00 | 21 | 1010.5 |
| 20260508172835 | 18 | 233 | 4.8 | 14.5 | 0.00 | 0.00 | 0.00 | 22 | 1010.6 |
| 20260508172726 | 18 | 241 | 1.6 | 14.5 | 0.00 | 0.00 | 0.00 | 23 | 1010.6 |
| 20260508172638 | 17 | 350 | 3.2 | 14.5 | 0.00 | 0.00 | 0.00 | 23 | 1010.6 |
| 20260508172543 | 17 | 181 | 4.8 | 14.5 | 0.00 | 0.00 | 0.00 | 23 | 1010.5 |
| 20260508172434 | 17 | 160 | 6.4 | 14.5 | 0.00 | 0.00 | 0.00 | 23 | 1010.6 |
| 20260508172328 | 17 | 210 | 4.8 | 14.5 | 0.00 | 0.00 | 0.00 | 22 | 1010.5 |
| 20260508172238 | 18 | 208 | 4.8 | 14.5 | 0.00 | 0.00 | 0.00 | 23 | 1010.6 |
| 20260508172130 | 17 | 240 | 6.4 | 14.5 | 0.00 | 0.00 | 0.00 | 23 | 1010.5 |
| 20260508172035 | 18 | 217 | 6.4 | 14.5 | 0.00 | 0.00 | 0.00 | 24 | 1010.6 |
| 20260508171925 | 18 | 120 | 4.8 | 14.5 | 0.00 | 0.00 | 0.00 | 22 | 1010.6 |
| 20260508171835 | 18 | 219 | 3.2 | 9.7 | 0.00 | 0.00 | 0.00 | 23 | 1010.6 |
| 20260508171727 | 18 | 179 | 3.2 | 14.5 | 0.00 | 0.00 | 0.00 | 24 | 1010.7 |
| 20260508171638 | 18 | 219 | 3.2 | 14.5 | 0.00 | 0.00 | 0.00 | 23 | 1010.6 |
| 20260508171524 | 18 | 162 | 3.2 | 14.5 | 0.00 | 0.00 | 0.00 | 24 | 1010.6 |
| 20260508171441 | 18 | 214 | 4.8 | 14.5 | 0.00 | 0.00 | 0.00 | 23 | 1010.6 |
| 20260508171332 | 18 | 150 | 4.8 | 14.5 | 0.00 | 0.00 | 0.00 | 24 | 1010.6 |
| 20260508171244 | 18 | 200 | 3.2 | 14.5 | 0.00 | 0.00 | 0.00 | 24 | 1010.7 |
| 20260508171137 | 18 | 155 | 3.2 | 14.5 | 0.00 | 0.00 | 0.00 | 25 | 1010.7 |
| 20260508171043 | 18 | 303 | 3.2 | 14.5 | 0.00 | 0.00 | 0.00 | 24 | 1010.7 |
| 20260508170933 | 18 | 300 | 6.4 | 14.5 | 0.00 | 0.00 | 0.00 | 24 | 1010.7 |
| 20260508170846 | 18 | 274 | 8.0 | 14.5 | 0.00 | 0.00 | 0.00 | 24 | 1010.6 |
| 20260508170757 | 18 | 194 | 6.4 | 14.5 | 0.00 | 0.00 | 0.00 | 23 | 1010.7 |
| 20260508170648 | 18 | 257 | 6.4 | 11.3 | 0.00 | 0.00 | 0.00 | 25 | 1010.7 |
| 20260508170559 | 18 | 290 | 3.2 | 11.3 | 0.00 | 0.00 | 0.00 | 23 | 1010.7 |
| 20260508170434 | 18 | 139 | 3.2 | 11.3 | 0.00 | 0.00 | 0.00 | 23 | 1010.7 |
| 20260508170324 | 18 | 158 | 4.8 | 11.3 | 0.00 | 0.00 | 0.00 | 24 | 1010.8 |
| 20260508170235 | 18 | 238 | 3.2 | 11.3 | 0.00 | 0.00 | 0.00 | 23 | 1010.8 |
| 20260508170128 | 18 | 218 | 1.6 | 9.7 | 0.00 | 0.00 | 0.00 | 24 | 1010.8 |
| 20260508170033 | 18 | 132 | 1.6 | 9.7 | 0.00 | 0.00 | 0.00 | 25 | 1010.8 |
| 20260508165925 | 18 | 326 | 3.2 | 9.7 | 0.00 | 0.00 | 0.00 | 24 | 1010.8 |
| 20260508165837 | 18 | 248 | 4.8 | 9.7 | 0.00 | 0.00 | 0.00 | 23 | 1010.8 |
| 20260508165727 | 19 | 244 | 3.2 | 9.7 | 0.00 | 0.00 | 0.00 | 24 | 1010.8 |
| 20260508165642 | 19 | 217 | 1.6 | 6.4 | 0.00 | 0.00 | 0.00 | 24 | 1010.8 |
| 20260508165528 | 19 | 319 | 1.6 | 6.4 | 0.00 | 0.00 | 0.00 | 23 | 1010.8 |
| 20260508165439 | 18 | 234 | 1.6 | 6.4 | 0.00 | 0.00 | 0.00 | 24 | 1010.8 |
| 20260508165331 | 18 | 326 | 1.6 | 6.4 | 0.00 | 0.00 | 0.00 | 24 | 1010.8 |
| 20260508165241 | 18 | 13 | 0.0 | 6.4 | 0.00 | 0.00 | 0.00 | 24 | 1010.8 |
| 20260508165133 | 18 | 360 | 0.0 | 6.4 | 0.00 | 0.00 | 0.00 | 23 | 1010.8 |
| 20260508165038 | 18 | 255 | 1.6 | 6.4 | 0.00 | 0.00 | 0.00 | 22 | 1010.9 |
| 20260508164929 | 18 | 247 | 1.6 | 6.4 | 0.00 | 0.00 | 0.00 | 23 | 1010.9 |
| 20260508164825 | 18 | 246 | 3.2 | 6.4 | 0.00 | 0.00 | 0.00 | 23 | 1011.0 |
| 20260508164737 | 18 | 243 | 3.2 | 6.4 | 0.00 | 0.00 | 0.00 | 23 | 1011.1 |
| 20260508164647 | 18 | 238 | 4.8 | 8.0 | 0.00 | 0.00 | 0.00 | 24 | 1011.0 |
| 20260508164534 | 18 | 168 | 3.2 | 8.0 | 0.00 | 0.00 | 0.00 | 23 | 1011.0 |
| 20260508164444 | 18 | 169 | 3.2 | 8.0 | 0.00 | 0.00 | 0.00 | 22 | 1011.1 |
| 20260508164335 | 18 | 186 | 1.6 | 8.0 | 0.00 | 0.00 | 0.00 | 23 | 1011.0 |
| 20260508164227 | 18 | 201 | 1.6 | 8.0 | 0.00 | 0.00 | 0.00 | 23 | 1011.1 |
| 20260508164138 | 18 | 255 | 1.6 | 8.0 | 0.00 | 0.00 | 0.00 | 23 | 1011.1 |
| 20260508164024 | 18 | 318 | 1.6 | 8.0 | 0.00 | 0.00 | 0.00 | 22 | 1011.1 |
| 20260508163934 | 18 | 259 | 3.2 | 8.0 | 0.00 | 0.00 | 0.00 | 22 | 1011.1 |
| 20260508163849 | 18 | 191 | 1.6 | 8.0 | 0.00 | 0.00 | 0.00 | 24 | 1011.1 |
| 20260508163739 | 18 | 79 | 1.6 | 6.4 | 0.00 | 0.00 | 0.00 | 24 | 1011.2 |
| 20260508163652 | 18 | 331 | 1.6 | 6.4 | 0.00 | 0.00 | 0.00 | 23 | 1011.2 |
| 20260508163558 | 18 | 293 | 1.6 | 6.4 | 0.00 | 0.00 | 0.00 | 20 | 1011.3 |
| 20260508163426 | 18 | 281 | 3.2 | 6.4 | 0.00 | 0.00 | 0.00 | 21 | 1011.3 |
| 20260508163337 | 18 | 275 | 3.2 | 6.4 | 0.00 | 0.00 | 0.00 | 21 | 1011.2 |
| 20260508163250 | 18 | 288 | 1.6 | 4.8 | 0.00 | 0.00 | 0.00 | 22 | 1011.2 |
| 20260508163201 | 18 | 15 | 1.6 | 8.0 | 0.00 | 0.00 | 0.00 | 22 | 1011.4 |
| 20260508163043 | 18 | 349 | 3.2 | 11.3 | 0.00 | 0.00 | 0.00 | 21 | 1011.4 |
| 20260508162954 | 18 | 23 | 1.6 | 11.3 | 0.00 | 0.00 | 0.00 | 24 | 1011.4 |
| 20260508162844 | 18 | 65 | 1.6 | 11.3 | 0.00 | 0.00 | 0.00 | 25 | 1011.3 |
| 20260508162739 | 18 | 73 | 1.6 | 11.3 | 0.00 | 0.00 | 0.00 | 26 | 1011.4 |
| 20260508162631 | 18 | 330 | 1.6 | 11.3 | 0.00 | 0.00 | 0.00 | 24 | 1011.3 |
| 20260508162536 | 18 | 130 | 1.6 | 11.3 | 0.00 | 0.00 | 0.00 | 25 | 1011.4 |
| 20260508162448 | 18 | 96 | 3.2 | 11.3 | 0.00 | 0.00 | 0.00 | 25 | 1011.4 |
| 20260508162358 | 17 | 6 | 3.2 | 14.5 | 0.00 | 0.00 | 0.00 | 24 | 1011.4 |
| 20260508162251 | 17 | 191 | 3.2 | 14.5 | 0.00 | 0.00 | 0.00 | 27 | 1011.4 |
| 20260508162201 | 17 | 279 | 1.6 | 14.5 | 0.00 | 0.00 | 0.00 | 25 | 1011.3 |
| 20260508162026 | 17 | 45 | 3.2 | 14.5 | 0.00 | 0.00 | 0.00 | 26 | 1011.4 |
| 20260508161938 | 17 | 217 | 3.2 | 14.5 | 0.00 | 0.00 | 0.00 | 25 | 1011.4 |
| 20260508161850 | 17 | 210 | 1.6 | 14.5 | 0.00 | 0.00 | 0.00 | 28 | 1011.4 |
| 20260508161740 | 17 | 240 | 3.2 | 14.5 | 0.00 | 0.00 | 0.00 | 28 | 1011.4 |
| 20260508161656 | 17 | 278 | 4.8 | 14.5 | 0.00 | 0.00 | 0.00 | 26 | 1011.4 |
| 20260508161541 | 17 | 244 | 4.8 | 14.5 | 0.00 | 0.00 | 0.00 | 27 | 1011.5 |
| 20260508161432 | 17 | 155 | 3.2 | 17.7 | 0.00 | 0.00 | 0.00 | 26 | 1011.5 |
| 20260508161340 | 17 | 241 | 3.2 | 17.7 | 0.00 | 0.00 | 0.00 | 26 | 1011.4 |
| 20260508161231 | 17 | 119 | 3.2 | 17.7 | 0.00 | 0.00 | 0.00 | 25 | 1011.4 |
| 20260508161141 | 17 | 210 | 4.8 | 17.7 | 0.00 | 0.00 | 0.00 | 26 | 1011.4 |
| 20260508161028 | 17 | 236 | 6.4 | 17.7 | 0.00 | 0.00 | 0.00 | 26 | 1011.4 |
| 20260508160939 | 17 | 235 | 6.4 | 17.7 | 0.00 | 0.00 | 0.00 | 26 | 1011.4 |
| 20260508160830 | 17 | 195 | 6.4 | 17.7 | 0.00 | 0.00 | 0.00 | 27 | 1011.4 |
| 20260508160727 | 17 | 148 | 8.0 | 17.7 | 0.00 | 0.00 | 0.00 | 26 | 1011.4 |
| 20260508160637 | 17 | 190 | 6.4 | 17.7 | 0.00 | 0.00 | 0.00 | 26 | 1011.4 |
| 20260508160525 | 17 | 203 | 6.4 | 14.5 | 0.00 | 0.00 | 0.00 | 28 | 1011.3 |
| 20260508160436 | 17 | 236 | 4.8 | 14.5 | 0.00 | 0.00 | 0.00 | 27 | 1011.3 |
| 20260508160325 | 17 | 188 | 3.2 | 9.7 | 0.00 | 0.00 | 0.00 | 27 | 1011.3 |
| 20260508160237 | 17 | 216 | 3.2 | 9.7 | 0.00 | 0.00 | 0.00 | 27 | 1011.3 |
| 20260508160146 | 17 | 202 | 1.6 | 9.7 | 0.00 | 0.00 | 0.00 | 28 | 1011.3 |
| 20260508160059 | 17 | 219 | 1.6 | 9.7 | 0.00 | 0.00 | 0.00 | 28 | 1011.3 |
| 20260508160005 | 17 | 249 | 3.2 | 9.7 | 0.00 | 0.00 | 0.00 | 27 | 1011.3 |
| 20260508155833 | 17 | 231 | 3.2 | 9.7 | 0.00 | 0.00 | 0.00 | 27 | 1011.3 |
| 20260508155748 | 17 | 340 | 4.8 | 9.7 | 0.00 | 0.00 | 0.00 | 26 | 1011.4 |
| 20260508155639 | 17 | 294 | 4.8 | 9.7 | 0.00 | 0.00 | 0.00 | 26 | 1011.5 |
| 20260508155546 | 17 | 271 | 4.8 | 9.7 | 0.00 | 0.00 | 0.00 | 27 | 1011.5 |
| 20260508155456 | 17 | 141 | 1.6 | 14.5 | 0.00 | 0.00 | 0.00 | 28 | 1011.4 |
| 20260508155325 | 17 | 119 | 1.6 | 14.5 | 0.00 | 0.00 | 0.00 | 27 | 1011.5 |
| 20260508155237 | 17 | 121 | 1.6 | 14.5 | 0.00 | 0.00 | 0.00 | 30 | 1011.4 |
| 20260508155125 | 17 | 148 | 3.2 | 14.5 | 0.00 | 0.00 | 0.00 | 27 | 1011.4 |
| 20260508155031 | 17 | 208 | 1.6 | 14.5 | 0.00 | 0.00 | 0.00 | 28 | 1011.4 |
| 20260508154942 | 16 | 246 | 3.2 | 14.5 | 0.00 | 0.00 | 0.00 | 29 | 1011.4 |
| 20260508154833 | 16 | 266 | 6.4 | 14.5 | 0.00 | 0.00 | 0.00 | 27 | 1011.4 |
| 20260508154729 | 17 | 167 | 8.0 | 14.5 | 0.00 | 0.00 | 0.00 | 27 | 1011.4 |
| 20260508154640 | 17 | 199 | 4.8 | 14.5 | 0.00 | 0.00 | 0.00 | 27 | 1011.4 |
| 20260508154547 | 17 | 177 | 3.2 | 9.7 | 0.00 | 0.00 | 0.00 | 28 | 1011.3 |
| 20260508154436 | 17 | 185 | 4.8 | 9.7 | 0.00 | 0.00 | 0.00 | 28 | 1011.3 |
| 20260508154325 | 17 | 271 | 1.6 | 8.0 | 0.00 | 0.00 | 0.00 | 28 | 1011.3 |
| 20260508154236 | 17 | 224 | 1.6 | 8.0 | 0.00 | 0.00 | 0.00 | 28 | 1011.3 |
| 20260508154127 | 17 | 215 | 1.6 | 8.0 | 0.00 | 0.00 | 0.00 | 28 | 1011.3 |
| 20260508154032 | 17 | 145 | 1.6 | 8.0 | 0.00 | 0.00 | 0.00 | 28 | 1011.3 |
| 20260508153944 | 17 | 298 | 1.6 | 9.7 | 0.00 | 0.00 | 0.00 | 28 | 1011.4 |
| 20260508153834 | 17 | 275 | 3.2 | 9.7 | 0.00 | 0.00 | 0.00 | 28 | 1011.4 |
| 20260508153729 | 17 | 218 | 3.2 | 11.3 | 0.00 | 0.00 | 0.00 | 29 | 1011.3 |
| 20260508153640 | 17 | 229 | 1.6 | 11.3 | 0.00 | 0.00 | 0.00 | 29 | 1011.4 |
| 20260508153547 | 16 | 236 | 1.6 | 11.3 | 0.00 | 0.00 | 0.00 | 28 | 1011.3 |
| 20260508153457 | 16 | 309 | 3.2 | 11.3 | 0.00 | 0.00 | 0.00 | 27 | 1011.3 |
| 20260508153347 | 16 | 177 | 4.8 | 11.3 | 0.00 | 0.00 | 0.00 | 27 | 1011.3 |
| 20260508153215 | 16 | 134 | 4.8 | 11.3 | 0.00 | 0.00 | 0.00 | 27 | 1011.4 |
| 20260508153127 | 16 | 124 | 4.8 | 11.3 | 0.00 | 0.00 | 0.00 | 26 | 1011.3 |
| 20260508153012 | 16 | 234 | 4.8 | 12.9 | 0.00 | 0.00 | 0.00 | 26 | 1011.4 |
| 20260508152901 | 16 | 160 | 3.2 | 12.9 | 0.00 | 0.00 | 0.00 | 27 | 1011.4 |
| 20260508152731 | 16 | 190 | 3.2 | 12.9 | 0.00 | 0.00 | 0.00 | 26 | 1011.3 |
| 20260508152643 | 16 | 137 | 3.2 | 12.9 | 0.00 | 0.00 | 0.00 | 26 | 1011.4 |
| 20260508152553 | 16 | 289 | 3.2 | 12.9 | 0.00 | 0.00 | 0.00 | 26 | 1011.4 |
| 20260508152443 | 16 | 310 | 4.8 | 12.9 | 0.00 | 0.00 | 0.00 | 27 | 1011.4 |
| 20260508152333 | 16 | 154 | 4.8 | 12.9 | 0.00 | 0.00 | 0.00 | 26 | 1011.5 |
| 20260508152225 | 16 | 243 | 4.8 | 12.9 | 0.00 | 0.00 | 0.00 | 27 | 1011.4 |
| 20260508152135 | 16 | 206 | 4.8 | 12.9 | 0.00 | 0.00 | 0.00 | 25 | 1011.4 |
| 20260508152043 | 16 | 231 | 3.2 | 12.9 | 0.00 | 0.00 | 0.00 | 26 | 1011.5 |
| 20260508151933 | 16 | 306 | 3.2 | 12.9 | 0.00 | 0.00 | 0.00 | 26 | 1011.5 |
| 20260508151844 | 16 | 304 | 3.2 | 12.9 | 0.00 | 0.00 | 0.00 | 28 | 1011.4 |
| 20260508151734 | 16 | 231 | 1.6 | 12.9 | 0.00 | 0.00 | 0.00 | 29 | 1011.4 |
| 20260508151648 | 16 | 243 | 4.8 | 12.9 | 0.00 | 0.00 | 0.00 | 28 | 1011.4 |
| 20260508151600 | 16 | 212 | 4.8 | 12.9 | 0.00 | 0.00 | 0.00 | 27 | 1011.5 |
| 20260508151505 | 16 | 228 | 3.2 | 6.4 | 0.00 | 0.00 | 0.00 | 28 | 1011.4 |
| 20260508151357 | 16 | 160 | 3.2 | 6.4 | 0.00 | 0.00 | 0.00 | 27 | 1011.4 |
| 20260508151248 | 16 | 144 | 3.2 | 6.4 | 0.00 | 0.00 | 0.00 | 29 | 1011.5 |
| 20260508151158 | 16 | 359 | 1.6 | 6.4 | 0.00 | 0.00 | 0.00 | 28 | 1011.6 |
| 20260508151043 | 16 | 249 | 1.6 | 9.7 | 0.00 | 0.00 | 0.00 | 32 | 1011.6 |
| 20260508150933 | 16 | 295 | 3.2 | 14.5 | 0.00 | 0.00 | 0.00 | 31 | 1011.6 |
| 20260508150843 | 16 | 172 | 1.6 | 14.5 | 0.00 | 0.00 | 0.00 | 32 | 1011.6 |
| 20260508150757 | 16 | 219 | 1.6 | 14.5 | 0.00 | 0.00 | 0.00 | 29 | 1011.6 |
| 20260508150709 | 16 | 219 | 1.6 | 14.5 | 0.00 | 0.00 | 0.00 | 33 | 1011.6 |
| 20260508150538 | 16 | 190 | 1.6 | 14.5 | 0.00 | 0.00 | 0.00 | 36 | 1011.6 |
| 20260508150433 | 16 | 221 | 3.2 | 14.5 | 0.00 | 0.00 | 0.00 | 34 | 1011.6 |
| 20260508150325 | 16 | 238 | 4.8 | 14.5 | 0.00 | 0.00 | 0.00 | 34 | 1011.5 |
| 20260508150237 | 16 | 250 | 6.4 | 14.5 | 0.00 | 0.00 | 0.00 | 33 | 1011.5 |
| 20260508150127 | 16 | 259 | 3.2 | 14.5 | 0.00 | 0.00 | 0.00 | 35 | 1011.4 |
| 20260508150035 | 16 | 257 | 1.6 | 9.7 | 0.00 | 0.00 | 0.00 | 35 | 1011.6 |
| 20260508145945 | 16 | 276 | 3.2 | 9.7 | 0.00 | 0.00 | 0.00 | 36 | 1011.6 |
| 20260508145835 | 16 | 224 | 3.2 | 9.7 | 0.00 | 0.00 | 0.00 | 37 | 1011.6 |
| 20260508145726 | 16 | 257 | 1.6 | 11.3 | 0.00 | 0.00 | 0.00 | 38 | 1011.5 |
| 20260508145637 | 16 | 11 | 1.6 | 11.3 | 0.00 | 0.00 | 0.00 | 39 | 1011.5 |
| 20260508145547 | 16 | 23 | 1.6 | 11.3 | 0.00 | 0.00 | 0.00 | 39 | 1011.6 |
| 20260508145437 | 16 | 34 | 1.6 | 11.3 | 0.00 | 0.00 | 0.00 | 39 | 1011.5 |
| 20260508145348 | 16 | 139 | 3.2 | 11.3 | 0.00 | 0.00 | 0.00 | 38 | 1011.5 |
| 20260508145237 | 16 | 176 | 3.2 | 11.3 | 0.00 | 0.00 | 0.00 | 42 | 1011.5 |
| 20260508145128 | 16 | 189 | 4.8 | 11.3 | 0.00 | 0.00 | 0.00 | 41 | 1011.6 |
| 20260508145034 | 16 | 158 | 4.8 | 11.3 | 0.00 | 0.00 | 0.00 | 39 | 1011.6 |
| 20260508144926 | 16 | 153 | 4.8 | 11.3 | 0.00 | 0.00 | 0.00 | 42 | 1011.6 |
| 20260508144836 | 16 | 223 | 3.2 | 9.7 | 0.00 | 0.00 | 0.00 | 42 | 1011.7 |
| 20260508144726 | 16 | 211 | 1.6 | 9.7 | 0.00 | 0.00 | 0.00 | 43 | 1011.6 |
| 20260508144638 | 16 | 169 | 1.6 | 9.7 | 0.00 | 0.00 | 0.00 | 43 | 1011.6 |
| 20260508144527 | 16 | 218 | 1.6 | 9.7 | 0.00 | 0.00 | 0.00 | 42 | 1011.7 |
| 20260508144439 | 15 | 167 | 1.6 | 9.7 | 0.00 | 0.00 | 0.00 | 43 | 1011.7 |
| 20260508144350 | 15 | 296 | 1.6 | 4.8 | 0.00 | 0.00 | 0.00 | 42 | 1011.6 |
| 20260508144239 | 15 | 70 | 1.6 | 6.4 | 0.00 | 0.00 | 0.00 | 46 | 1011.6 |
| 20260508144151 | 15 | 285 | 1.6 | 6.4 | 0.00 | 0.00 | 0.00 | 46 | 1011.6 |
| 20260508144037 | 15 | 49 | 1.6 | 6.4 | 0.00 | 0.00 | 0.00 | 46 | 1011.6 |
| 20260508143928 | 15 | 230 | 1.6 | 8.0 | 0.00 | 0.00 | 0.00 | 45 | 1011.6 |
| 20260508143839 | 15 | 307 | 1.6 | 8.0 | 0.00 | 0.00 | 0.00 | 45 | 1011.6 |
| 20260508143731 | 15 | 338 | 1.6 | 8.0 | 0.00 | 0.00 | 0.00 | 46 | 1011.6 |
| 20260508143641 | 15 | 328 | 1.6 | 8.0 | 0.00 | 0.00 | 0.00 | 46 | 1011.6 |
| 20260508143558 | 15 | 18 | 1.6 | 8.0 | 0.00 | 0.00 | 0.00 | 46 | 1011.6 |
| 20260508143504 | 15 | 241 | 3.2 | 8.0 | 0.00 | 0.00 | 0.00 | 46 | 1011.6 |
| 20260508143334 | 15 | 211 | 3.2 | 8.0 | 0.00 | 0.00 | 0.00 | 46 | 1011.5 |
| 20260508143246 | 15 | 206 | 3.2 | 8.0 | 0.00 | 0.00 | 0.00 | 47 | 1011.5 |
| 20260508143158 | 15 | 174 | 4.8 | 8.0 | 0.00 | 0.00 | 0.00 | 47 | 1011.5 |
| 20260508143044 | 15 | 226 | 6.4 | 8.0 | 0.00 | 0.00 | 0.00 | 45 | 1011.5 |
| 20260508142937 | 15 | 212 | 4.8 | 8.0 | 0.00 | 0.00 | 0.00 | 47 | 1011.5 |
| 20260508142827 | 15 | 264 | 3.2 | 8.0 | 0.00 | 0.00 | 0.00 | 49 | 1011.5 |
| 20260508142739 | 15 | 205 | 1.6 | 8.0 | 0.00 | 0.00 | 0.00 | 50 | 1011.4 |
| 20260508142635 | 15 | 213 | 0.0 | 8.0 | 0.00 | 0.00 | 0.00 | 50 | 1011.4 |
| 20260508142542 | 15 | 238 | 0.0 | 8.0 | 0.00 | 0.00 | 0.00 | 50 | 1011.4 |
| 20260508142432 | 15 | 245 | 1.6 | 8.0 | 0.00 | 0.00 | 0.00 | 50 | 1011.5 |
| 20260508142324 | 14 | 203 | 4.8 | 8.0 | 0.00 | 0.00 | 0.00 | 50 | 1011.5 |
| 20260508142237 | 14 | 41 | 4.8 | 8.0 | 0.00 | 0.00 | 0.00 | 50 | 1011.4 |
| 20260508142148 | 15 | 164 | 3.2 | 8.0 | 0.00 | 0.00 | 0.00 | 52 | 1011.4 |
| 20260508142054 | 14 | 202 | 1.6 | 8.0 | 0.00 | 0.00 | 0.00 | 54 | 1011.5 |
| 20260508141943 | 14 | 135 | 1.6 | 8.0 | 0.00 | 0.00 | 0.00 | 55 | 1011.5 |
| 20260508141835 | 14 | 206 | 1.6 | 8.0 | 0.00 | 0.00 | 0.00 | 55 | 1011.6 |
| 20260508141747 | 14 | 158 | 1.6 | 8.0 | 0.00 | 0.00 | 0.00 | 55 | 1011.6 |
| 20260508141642 | 14 | 98 | 3.2 | 8.0 | 0.00 | 0.00 | 0.00 | 55 | 1011.7 |
| 20260508141526 | 14 | 75 | 3.2 | 9.7 | 0.00 | 0.00 | 0.00 | 56 | 1011.7 |
| 20260508141438 | 14 | 108 | 1.6 | 9.7 | 0.00 | 0.00 | 0.00 | 56 | 1011.7 |
| 20260508141328 | 13 | 122 | 1.6 | 11.3 | 0.00 | 0.00 | 0.00 | 56 | 1011.8 |
| 20260508141240 | 13 | 124 | 1.6 | 11.3 | 0.00 | 0.00 | 0.00 | 57 | 1011.7 |
| 20260508141151 | 13 | 159 | 1.6 | 11.3 | 0.00 | 0.00 | 0.00 | 57 | 1011.7 |
| 20260508141101 | 13 | 219 | 3.2 | 11.3 | 0.00 | 0.00 | 0.00 | 57 | 1011.7 |
| 20260508140930 | 13 | 211 | 3.2 | 11.3 | 0.00 | 0.00 | 0.00 | 57 | 1011.8 |
| 20260508140841 | 13 | 115 | 1.6 | 11.3 | 0.00 | 0.00 | 0.00 | 57 | 1011.8 |
| 20260508140732 | 13 | 205 | 3.2 | 11.3 | 0.00 | 0.00 | 0.00 | 58 | 1011.8 |
| 20260508140625 | 13 | 190 | 6.4 | 11.3 | 0.00 | 0.00 | 0.00 | 58 | 1011.8 |
| 20260508140531 | 13 | 221 | 6.4 | 11.3 | 0.00 | 0.00 | 0.00 | 57 | 1011.9 |
| 20260508140443 | 13 | 228 | 4.8 | 9.7 | 0.00 | 0.00 | 0.00 | 57 | 1011.8 |
| 20260508140354 | 13 | 217 | 3.2 | 6.4 | 0.00 | 0.00 | 0.00 | 59 | 1011.8 |
| 20260508140243 | 13 | 134 | 1.6 | 8.0 | 0.00 | 0.00 | 0.00 | 59 | 1011.8 |
| 20260508140134 | 13 | 167 | 1.6 | 8.0 | 0.00 | 0.00 | 0.00 | 59 | 1011.9 |
| 20260508140040 | 13 | 177 | 1.6 | 8.0 | 0.00 | 0.00 | 0.00 | 59 | 1011.8 |
| 20260508135931 | 12 | 219 | 1.6 | 8.0 | 0.00 | 0.00 | 0.00 | 59 | 1011.9 |
| 20260508135843 | 12 | 223 | 3.2 | 8.0 | 0.00 | 0.00 | 0.00 | 59 | 1011.9 |
| 20260508135734 | 12 | 229 | 3.2 | 8.0 | 0.00 | 0.00 | 0.00 | 60 | 1011.9 |
| 20260508135629 | 12 | 225 | 3.2 | 8.0 | 0.00 | 0.00 | 0.00 | 60 | 1011.9 |
| 20260508135534 | 12 | 214 | 3.2 | 8.0 | 0.00 | 0.00 | 0.00 | 60 | 1011.9 |
| 20260508135426 | 12 | 204 | 4.8 | 8.0 | 0.00 | 0.00 | 0.00 | 60 | 1011.9 |
| 20260508135337 | 12 | 182 | 3.2 | 6.4 | 0.00 | 0.00 | 0.00 | 60 | 1012.0 |
| 20260508135245 | 12 | 134 | 3.2 | 6.4 | 0.00 | 0.00 | 0.00 | 60 | 1011.9 |
| 20260508135157 | 12 | 224 | 3.2 | 6.4 | 0.00 | 0.00 | 0.00 | 60 | 1011.9 |
| 20260508135106 | 12 | 220 | 3.2 | 6.4 | 0.00 | 0.00 | 0.00 | 60 | 1012.0 |
| 20260508134951 | 12 | 210 | 1.6 | 6.4 | 0.00 | 0.00 | 0.00 | 60 | 1012.0 |
| 20260508134840 | 12 | 202 | 3.2 | 6.4 | 0.00 | 0.00 | 0.00 | 60 | 1012.0 |
| 20260508134730 | 12 | 208 | 3.2 | 6.4 | 0.00 | 0.00 | 0.00 | 61 | 1011.9 |
| 20260508134645 | 12 | 217 | 1.6 | 4.8 | 0.00 | 0.00 | 0.00 | 61 | 1011.9 |
| 20260508134558 | 12 | 203 | 1.6 | 8.0 | 0.00 | 0.00 | 0.00 | 61 | 1011.9 |
| 20260508134443 | 12 | 143 | 1.6 | 8.0 | 0.00 | 0.00 | 0.00 | 62 | 1011.9 |
| 20260508134334 | 11 | 174 | 1.6 | 8.0 | 0.00 | 0.00 | 0.00 | 62 | 1011.9 |
| 20260508134226 | 11 | 217 | 1.6 | 8.0 | 0.00 | 0.00 | 0.00 | 62 | 1011.9 |
| 20260508134137 | 11 | 217 | 1.6 | 8.0 | 0.00 | 0.00 | 0.00 | 62 | 1011.9 |
| 20260508134043 | 11 | 70 | 1.6 | 8.0 | 0.00 | 0.00 | 0.00 | 63 | 1011.9 |
| 20260508133935 | 11 | 129 | 1.6 | 8.0 | 0.00 | 0.00 | 0.00 | 62 | 1011.9 |
| 20260508133825 | 11 | 243 | 3.2 | 8.0 | 0.00 | 0.00 | 0.00 | 62 | 1012.0 |
| 20260508133740 | 11 | 214 | 4.8 | 8.0 | 0.00 | 0.00 | 0.00 | 63 | 1012.0 |
| 20260508133631 | 11 | 228 | 3.2 | 8.0 | 0.00 | 0.00 | 0.00 | 63 | 1012.0 |
| 20260508133537 | 11 | 209 | 1.6 | 8.0 | 0.00 | 0.00 | 0.00 | 64 | 1012.0 |
| 20260508133448 | 11 | 179 | 3.2 | 8.0 | 0.00 | 0.00 | 0.00 | 64 | 1012.0 |
| 20260508133358 | 11 | 194 | 1.6 | 8.0 | 0.00 | 0.00 | 0.00 | 66 | 1011.9 |
| 20260508133250 | 11 | 231 | 0.0 | 8.0 | 0.00 | 0.00 | 0.00 | 66 | 1011.9 |
| 20260508133201 | 11 | 255 | 1.6 | 8.0 | 0.00 | 0.00 | 0.00 | 66 | 1011.9 |
| 20260508133047 | 11 | 230 | 1.6 | 8.0 | 0.00 | 0.00 | 0.00 | 66 | 1011.8 |
| 20260508132958 | 11 | 217 | 3.2 | 9.7 | 0.00 | 0.00 | 0.00 | 66 | 1011.9 |
| 20260508132825 | 11 | 200 | 3.2 | 9.7 | 0.00 | 0.00 | 0.00 | 66 | 1011.9 |
| 20260508132737 | 11 | 228 | 3.2 | 9.7 | 0.00 | 0.00 | 0.00 | 66 | 1012.0 |
| 20260508132631 | 11 | 165 | 4.8 | 9.7 | 0.00 | 0.00 | 0.00 | 66 | 1012.0 |
| 20260508132537 | 11 | 217 | 4.8 | 9.7 | 0.00 | 0.00 | 0.00 | 66 | 1012.1 |
| 20260508132429 | 11 | 122 | 3.2 | 9.7 | 0.00 | 0.00 | 0.00 | 66 | 1012.0 |
| 20260508132340 | 11 | 214 | 3.2 | 9.7 | 0.00 | 0.00 | 0.00 | 66 | 1012.1 |
| 20260508132230 | 11 | 212 | 4.8 | 9.7 | 0.00 | 0.00 | 0.00 | 65 | 1012.1 |
| 20260508132141 | 11 | 200 | 4.8 | 9.7 | 0.00 | 0.00 | 0.00 | 66 | 1012.1 |
| 20260508132048 | 11 | 169 | 3.2 | 8.0 | 0.00 | 0.00 | 0.00 | 66 | 1012.1 |
| 20260508131937 | 11 | 127 | 1.6 | 8.0 | 0.00 | 0.00 | 0.00 | 66 | 1012.1 |
| 20260508131848 | 10 | 231 | 3.2 | 8.0 | 0.00 | 0.00 | 0.00 | 66 | 1012.1 |
| 20260508131738 | 10 | 249 | 3.2 | 8.0 | 0.00 | 0.00 | 0.00 | 66 | 1012.2 |
| 20260508131631 | 10 | 248 | 3.2 | 8.0 | 0.00 | 0.00 | 0.00 | 66 | 1012.1 |
| 20260508131537 | 10 | 177 | 3.2 | 8.0 | 0.00 | 0.00 | 0.00 | 67 | 1012.1 |
| 20260508131429 | 10 | 221 | 3.2 | 8.0 | 0.00 | 0.00 | 0.00 | 67 | 1012.1 |
| 20260508131341 | 10 | 202 | 3.2 | 8.0 | 0.00 | 0.00 | 0.00 | 67 | 1012.1 |
| 20260508131251 | 10 | 230 | 3.2 | 8.0 | 0.00 | 0.00 | 0.00 | 67 | 1012.1 |
| 20260508131142 | 10 | 175 | 1.6 | 8.0 | 0.00 | 0.00 | 0.00 | 68 | 1012.1 |
| 20260508131026 | 10 | 119 | 1.6 | 8.0 | 0.00 | 0.00 | 0.00 | 68 | 1012.1 |
| 20260508130936 | 10 | 153 | 3.2 | 8.0 | 0.00 | 0.00 | 0.00 | 68 | 1012.0 |
| 20260508130850 | 10 | 188 | 3.2 | 8.0 | 0.00 | 0.00 | 0.00 | 68 | 1012.0 |
| 20260508130802 | 10 | 211 | 1.6 | 8.0 | 0.00 | 0.00 | 0.00 | 69 | 1012.1 |
| 20260508130714 | 10 | 238 | 3.2 | 6.4 | 0.00 | 0.00 | 0.00 | 69 | 1012.1 |
| 20260508130606 | 10 | 191 | 3.2 | 6.4 | 0.00 | 0.00 | 0.00 | 69 | 1012.1 |
| 20260508130456 | 10 | 142 | 3.2 | 4.8 | 0.00 | 0.00 | 0.00 | 69 | 1012.1 |
| 20260508130327 | 10 | 212 | 1.6 | 4.8 | 0.00 | 0.00 | 0.00 | 70 | 1012.1 |
| 20260508130237 | 10 | 193 | 1.6 | 4.8 | 0.00 | 0.00 | 0.00 | 70 | 1012.2 |
| 20260508130129 | 10 | 196 | 1.6 | 4.8 | 0.00 | 0.00 | 0.00 | 70 | 1012.1 |
| 20260508130035 | 10 | 205 | 1.6 | 4.8 | 0.00 | 0.00 | 0.00 | 71 | 1012.1 |
| 20260508125926 | 10 | 169 | 1.6 | 4.8 | 0.00 | 0.00 | 0.00 | 70 | 1012.2 |
| 20260508125837 | 10 | 210 | 1.6 | 4.8 | 0.00 | 0.00 | 0.00 | 71 | 1012.2 |
| 20260508125746 | 9 | 194 | 1.6 | 4.8 | 0.00 | 0.00 | 0.00 | 71 | 1012.1 |
| 20260508125637 | 9 | 200 | 1.6 | 4.8 | 0.00 | 0.00 | 0.00 | 71 | 1012.2 |
| 20260508125526 | 9 | 210 | 1.6 | 4.8 | 0.00 | 0.00 | 0.00 | 72 | 1012.2 |
| 20260508125436 | 9 | 210 | 1.6 | 4.8 | 0.00 | 0.00 | 0.00 | 72 | 1012.1 |
| 20260508125327 | 9 | 242 | 1.6 | 4.8 | 0.00 | 0.00 | 0.00 | 72 | 1012.1 |
| 20260508125239 | 9 | 229 | 3.2 | 4.8 | 0.00 | 0.00 | 0.00 | 72 | 1012.1 |
| 20260508125149 | 8 | 214 | 3.2 | 4.8 | 0.00 | 0.00 | 0.00 | 73 | 1012.1 |
| 20260508125055 | 8 | 204 | 0.0 | 4.8 | 0.00 | 0.00 | 0.00 | 73 | 1012.0 |
| 20260508124924 | 8 | 174 | 1.6 | 4.8 | 0.00 | 0.00 | 0.00 | 73 | 1012.1 |
| 20260508124837 | 8 | 175 | 1.6 | 4.8 | 0.00 | 0.00 | 0.00 | 73 | 1012.1 |
| 20260508124729 | 8 | 131 | 1.6 | 3.2 | 0.00 | 0.00 | 0.00 | 74 | 1012.1 |
| 20260508124643 | 8 | 215 | 0.0 | 3.2 | 0.00 | 0.00 | 0.00 | 74 | 1012.0 |
| 20260508124529 | 8 | 222 | 0.0 | 3.2 | 0.00 | 0.00 | 0.00 | 74 | 1012.1 |
| 20260508124439 | 8 | 222 | 1.6 | 3.2 | 0.00 | 0.00 | 0.00 | 74 | 1012.0 |
| 20260508124331 | 8 | 222 | 1.6 | 3.2 | 0.00 | 0.00 | 0.00 | 75 | 1012.0 |
| 20260508124242 | 8 | 230 | 0.0 | 3.2 | 0.00 | 0.00 | 0.00 | 75 | 1012.1 |
| 20260508124133 | 8 | 195 | 1.6 | 3.2 | 0.00 | 0.00 | 0.00 | 75 | 1012.1 |
| 20260508124039 | 8 | 180 | 0.0 | 3.2 | 0.00 | 0.00 | 0.00 | 75 | 1012.1 |
| 20260508123928 | 8 | 203 | 1.6 | 3.2 | 0.00 | 0.00 | 0.00 | 75 | 1012.2 |
| 20260508123839 | 8 | 203 | 1.6 | 3.2 | 0.00 | 0.00 | 0.00 | 75 | 1012.1 |
| 20260508123658 | 7 | 167 | 1.6 | 3.2 | 0.00 | 0.00 | 0.00 | 76 | 1012.2 |
| 20260508123526 | 7 | 148 | 1.6 | 3.2 | 0.00 | 0.00 | 0.00 | 76 | 1012.2 |
| 20260508123437 | 7 | 184 | 1.6 | 3.2 | 0.00 | 0.00 | 0.00 | 76 | 1012.2 |
| 20260508123349 | 7 | 186 | 1.6 | 3.2 | 0.00 | 0.00 | 0.00 | 76 | 1012.2 |
| 20260508123238 | 7 | 200 | 0.0 | 1.6 | 0.00 | 0.00 | 0.00 | 76 | 1012.1 |
| 20260508123151 | 7 | 219 | 0.0 | 1.6 | 0.00 | 0.00 | 0.00 | 77 | 1012.1 |
| 20260508123036 | 7 | 199 | 0.0 | 1.6 | 0.00 | 0.00 | 0.00 | 77 | 1012.2 |
| 20260508122928 | 7 | 199 | 0.0 | 1.6 | 0.00 | 0.00 | 0.00 | 77 | 1012.1 |
| 20260508122839 | 7 | 199 | 0.0 | 1.6 | 0.00 | 0.00 | 0.00 | 77 | 1012.2 |
| 20260508122753 | 7 | 199 | 1.6 | 1.6 | 0.00 | 0.00 | 0.00 | 77 | 1012.2 |
| 20260508122704 | 7 | 218 | 0.0 | 1.6 | 0.00 | 0.00 | 0.00 | 77 | 1012.1 |
| 20260508122532 | 6 | 215 | 0.0 | 0.0 | 0.00 | 0.00 | 0.00 | 78 | 1012.1 |
| 20260508122424 | 6 | 215 | 0.0 | 0.0 | 0.00 | 0.00 | 0.00 | 78 | 1012.1 |
| 20260508122337 | 6 | 222 | 0.0 | 0.0 | 0.00 | 0.00 | 0.00 | 78 | 1012.1 |
| 20260508122226 | 6 | 190 | 0.0 | 0.0 | 0.00 | 0.00 | 0.00 | 78 | 1012.1 |
| 20260508122137 | 6 | 217 | 0.0 | 0.0 | 0.00 | 0.00 | 0.00 | 79 | 1012.1 |
| 20260508122044 | 6 | 217 | 0.0 | 0.0 | 0.00 | 0.00 | 0.00 | 79 | 1012.1 |
| 20260508121935 | 6 | 217 | 0.0 | 0.0 | 0.00 | 0.00 | 0.00 | 79 | 1012.1 |
| 20260508121846 | 6 | 217 | 0.0 | 0.0 | 0.00 | 0.00 | 0.00 | 80 | 1012.0 |
| 20260508121736 | 6 | 217 | 0.0 | 0.0 | 0.00 | 0.00 | 0.00 | 80 | 1012.1 |
| 20260508121650 | 6 | 217 | 0.0 | 0.0 | 0.00 | 0.00 | 0.00 | 81 | 1012.1 |
| 20260508121605 | 5 | 217 | 0.0 | 0.0 | 0.00 | 0.00 | 0.00 | 81 | 1012.1 |
| 20260508121434 | 5 | 217 | 0.0 | 0.0 | 0.00 | 0.00 | 0.00 | 82 | 1012.0 |
| 20260508121345 | 5 | 217 | 0.0 | 0.0 | 0.00 | 0.00 | 0.00 | 82 | 1011.9 |
| 20260508121257 | 5 | 217 | 0.0 | 0.0 | 0.00 | 0.00 | 0.00 | 83 | 1011.9 |
| 20260508121208 | 5 | 217 | 0.0 | 0.0 | 0.00 | 0.00 | 0.00 | 83 | 1012.1 |
| 20260508121120 | 5 | 217 | 0.0 | 0.0 | 0.00 | 0.00 | 0.00 | 85 | 1012.0 |
| 20260508121005 | 5 | 216 | 0.0 | 0.0 | 0.00 | 0.00 | 0.00 | 85 | 1011.9 |
| 20260508120834 | 5 | 217 | 0.0 | 0.0 | 0.00 | 0.00 | 0.00 | 86 | 1011.9 |
| 20260508120746 | 4 | 217 | 0.0 | 0.0 | 0.00 | 0.00 | 0.00 | 86 | 1011.9 |
| 20260508120656 | 4 | 217 | 0.0 | 0.0 | 0.00 | 0.00 | 0.00 | 87 | 1011.9 |
| 20260508120541 | 4 | 217 | 0.0 | 0.0 | 0.00 | 0.00 | 0.00 | 87 | 1012.0 |
| 20260508120458 | 4 | 217 | 0.0 | 0.0 | 0.00 | 0.00 | 0.00 | 87 | 1012.0 |
| 20260508120410 | 4 | 217 | 0.0 | 0.0 | 0.00 | 0.00 | 0.00 | 87 | 1011.9 |
| 20260508120320 | 3 | 217 | 0.0 | 0.0 | 0.00 | 0.00 | 0.00 | 88 | 1011.9 |
| 20260508120210 | 3 | 217 | 0.0 | 0.0 | 0.00 | 0.00 | 0.00 | 89 | 1011.8 |
| 20260508120122 | 3 | 217 | 0.0 | 0.0 | 0.00 | 0.00 | 0.00 | 90 | 1011.8 |
| 20260508120006 | 3 | 217 | 0.0 | 0.0 | 0.00 | 0.00 | 0.00 | 90 | 1011.8 |
| 20260508115858 | 3 | 217 | 0.0 | 0.0 | 0.00 | 0.00 | 0.00 | 91 | 1011.8 |
| 20260508115809 | 3 | 217 | 0.0 | 0.0 | 0.00 | 0.00 | 0.00 | 91 | 1011.7 |
| 20260508115659 | 3 | 217 | 0.0 | 0.0 | 0.00 | 0.00 | 0.00 | 91 | 1011.7 |
| 20260508115543 | 3 | 217 | 0.0 | 0.0 | 0.00 | 0.00 | 0.00 | 91 | 1011.7 |
| 20260508115433 | 3 | 217 | 0.0 | 0.0 | 0.00 | 0.00 | 0.00 | 91 | 1011.7 |
| 20260508115329 | 3 | 217 | 0.0 | 0.0 | 0.00 | 0.00 | 0.00 | 91 | 1011.7 |
| 20260508115239 | 3 | 217 | 0.0 | 0.0 | 0.00 | 0.00 | 0.00 | 91 | 1011.7 |
| 20260508115130 | 3 | 217 | 0.0 | 0.0 | 0.00 | 0.00 | 0.00 | 91 | 1011.7 |
| 20260508115036 | 2 | 217 | 0.0 | 0.0 | 0.00 | 0.00 | 0.00 | 91 | 1011.7 |
| 20260508114948 | 2 | 217 | 0.0 | 0.0 | 0.00 | 0.00 | 0.00 | 91 | 1011.6 |
| 20260508114839 | 2 | 217 | 0.0 | 0.0 | 0.00 | 0.00 | 0.00 | 91 | 1011.6 |
| 20260508114730 | 2 | 217 | 0.0 | 0.0 | 0.00 | 0.00 | 0.00 | 91 | 1011.7 |
| 20260508114642 | 2 | 217 | 0.0 | 0.0 | 0.00 | 0.00 | 0.00 | 91 | 1011.6 |
| 20260508114529 | 2 | 217 | 0.0 | 0.0 | 0.00 | 0.00 | 0.00 | 91 | 1011.6 |
| 20260508114439 | 2 | 217 | 0.0 | 0.0 | 0.00 | 0.00 | 0.00 | 91 | 1011.6 |
| 20260508114333 | 2 | 217 | 0.0 | 0.0 | 0.00 | 0.00 | 0.00 | 91 | 1011.6 |
| 20260508114245 | 2 | 217 | 0.0 | 0.0 | 0.00 | 0.00 | 0.00 | 91 | 1011.6 |
| 20260508114157 | 2 | 217 | 0.0 | 0.0 | 0.00 | 0.00 | 0.00 | 91 | 1011.6 |
| 20260508114107 | 2 | 217 | 0.0 | 0.0 | 0.00 | 0.00 | 0.00 | 91 | 1011.6 |
| 20260508114013 | 2 | 217 | 0.0 | 0.0 | 0.00 | 0.00 | 0.00 | 91 | 1011.6 |
| 20260508113925 | 2 | 217 | 0.0 | 0.0 | 0.00 | 0.00 | 0.00 | 91 | 1011.7 |
| 20260508113815 | 2 | 217 | 0.0 | 0.0 | 0.00 | 0.00 | 0.00 | 91 | 1011.5 |
| 20260508113726 | 2 | 217 | 0.0 | 0.0 | 0.00 | 0.00 | 0.00 | 91 | 1011.6 |
| 20260508113618 | 2 | 217 | 0.0 | 0.0 | 0.00 | 0.00 | 0.00 | 92 | 1011.6 |
| 20260508113439 | 2 | 217 | 0.0 | 0.0 | 0.00 | 0.00 | 0.00 | 91 | 1011.4 |
| 20260508113330 | 1 | 217 | 0.0 | 0.0 | 0.00 | 0.00 | 0.00 | 91 | 1011.4 |
| 20260508113226 | 1 | 217 | 0.0 | 0.0 | 0.00 | 0.00 | 0.00 | 91 | 1011.4 |
| 20260508113138 | 1 | 217 | 0.0 | 0.0 | 0.00 | 0.00 | 0.00 | 91 | 1011.4 |
| 20260508113045 | 1 | 217 | 0.0 | 0.0 | 0.00 | 0.00 | 0.00 | 91 | 1011.5 |
| 20260508112936 | 1 | 217 | 0.0 | 0.0 | 0.00 | 0.00 | 0.00 | 91 | 1011.6 |
| 20260508112827 | 1 | 217 | 0.0 | 0.0 | 0.00 | 0.00 | 0.00 | 91 | 1011.6 |
| 20260508112737 | 1 | 217 | 0.0 | 0.0 | 0.00 | 0.00 | 0.00 | 91 | 1011.5 |
| 20260508112651 | 1 | 217 | 0.0 | 0.0 | 0.00 | 0.00 | 0.00 | 91 | 1011.5 |
| 20260508112602 | 1 | 217 | 0.0 | 0.0 | 0.00 | 0.00 | 0.00 | 91 | 1011.5 |
| 20260508112431 | 1 | 217 | 0.0 | 0.0 | 0.00 | 0.00 | 0.00 | 91 | 1011.6 |
| 20260508112327 | 1 | 217 | 0.0 | 0.0 | 0.00 | 0.00 | 0.00 | 92 | 1011.6 |
| 20260508112238 | 1 | 217 | 0.0 | 0.0 | 0.00 | 0.00 | 0.00 | 92 | 1011.6 |
| 20260508112129 | 1 | 217 | 0.0 | 0.0 | 0.00 | 0.00 | 0.00 | 91 | 1011.6 |
| 20260508112035 | 1 | 217 | 0.0 | 0.0 | 0.00 | 0.00 | 0.00 | 91 | 1011.6 |
| 20260508111926 | 1 | 217 | 0.0 | 0.0 | 0.00 | 0.00 | 0.00 | 91 | 1011.6 |
| 20260508111836 | 1 | 217 | 0.0 | 0.0 | 0.00 | 0.00 | 0.00 | 91 | 1011.6 |
| 20260508111747 | 1 | 217 | 0.0 | 0.0 | 0.00 | 0.00 | 0.00 | 91 | 1011.4 |
| 20260508111658 | 1 | 217 | 0.0 | 0.0 | 0.00 | 0.00 | 0.00 | 91 | 1011.5 |
| 20260508111542 | 1 | 217 | 0.0 | 0.0 | 0.00 | 0.00 | 0.00 | 91 | 1011.5 |
| 20260508111436 | 1 | 217 | 0.0 | 0.0 | 0.00 | 0.00 | 0.00 | 91 | 1011.4 |
| 20260508111346 | 1 | 217 | 0.0 | 0.0 | 0.00 | 0.00 | 0.00 | 91 | 1011.5 |
| 20260508111258 | 1 | 217 | 0.0 | 0.0 | 0.00 | 0.00 | 0.00 | 91 | 1011.5 |
| 20260508111210 | 1 | 217 | 0.0 | 0.0 | 0.00 | 0.00 | 0.00 | 91 | 1011.4 |
| 20260508111121 | 1 | 217 | 0.0 | 0.0 | 0.00 | 0.00 | 0.00 | 91 | 1011.5 |
| 20260508111007 | 1 | 217 | 0.0 | 0.0 | 0.00 | 0.00 | 0.00 | 91 | 1011.5 |
| 20260508110858 | 1 | 217 | 0.0 | 0.0 | 0.00 | 0.00 | 0.00 | 90 | 1011.6 |
| 20260508110728 | 1 | 217 | 0.0 | 0.0 | 0.00 | 0.00 | 0.00 | 90 | 1011.4 |
| 20260508110639 | 1 | 217 | 0.0 | 0.0 | 0.00 | 0.00 | 0.00 | 90 | 1011.4 |
| 20260508110525 | 1 | 217 | 0.0 | 0.0 | 0.00 | 0.00 | 0.00 | 90 | 1011.4 |
| 20260508110436 | 1 | 217 | 0.0 | 0.0 | 0.00 | 0.00 | 0.00 | 90 | 1011.5 |
| 20260508110351 | 1 | 217 | 0.0 | 0.0 | 0.00 | 0.00 | 0.00 | 91 | 1011.5 |
| 20260508110241 | 1 | 217 | 0.0 | 0.0 | 0.00 | 0.00 | 0.00 | 91 | 1011.4 |
| 20260508110154 | 1 | 217 | 0.0 | 0.0 | 0.00 | 0.00 | 0.00 | 90 | 1011.4 |
| 20260508110106 | 0 | 217 | 0.0 | 0.0 | 0.00 | 0.00 | 0.00 | 90 | 1011.4 |
| 20260508105955 | 0 | 217 | 0.0 | 0.0 | 0.00 | 0.00 | 0.00 | 90 | 1011.4 |
| 20260508105826 | 0 | 217 | 0.0 | 0.0 | 0.00 | 0.00 | 0.00 | 90 | 1011.4 |
| 20260508105737 | 0 | 217 | 0.0 | 0.0 | 0.00 | 0.00 | 0.00 | 90 | 1011.4 |
| 20260508105628 | 1 | 217 | 0.0 | 0.0 | 0.00 | 0.00 | 0.00 | 90 | 1011.5 |
| 20260508105534 | 1 | 217 | 0.0 | 0.0 | 0.00 | 0.00 | 0.00 | 90 | 1011.4 |
| 20260508105426 | 1 | 217 | 0.0 | 0.0 | 0.00 | 0.00 | 0.00 | 90 | 1011.5 |
| 20260508105343 | 1 | 217 | 0.0 | 0.0 | 0.00 | 0.00 | 0.00 | 90 | 1011.4 |
| 20260508105233 | 1 | 217 | 0.0 | 0.0 | 0.00 | 0.00 | 0.00 | 90 | 1011.5 |
| 20260508105146 | 1 | 217 | 0.0 | 0.0 | 0.00 | 0.00 | 0.00 | 90 | 1011.5 |
| 20260508105051 | 1 | 217 | 0.0 | 0.0 | 0.00 | 0.00 | 0.00 | 90 | 1011.4 |
| 20260508104941 | 1 | 217 | 0.0 | 0.0 | 0.00 | 0.00 | 0.00 | 90 | 1011.4 |
| 20260508104853 | 1 | 217 | 0.0 | 0.0 | 0.00 | 0.00 | 0.00 | 90 | 1011.4 |
| 20260508104743 | 1 | 217 | 0.0 | 0.0 | 0.00 | 0.00 | 0.00 | 90 | 1011.5 |
| 20260508104634 | 1 | 217 | 0.0 | 0.0 | 0.00 | 0.00 | 0.00 | 90 | 1011.5 |
| 20260508104540 | 1 | 217 | 0.0 | 0.0 | 0.00 | 0.00 | 0.00 | 90 | 1011.5 |
| 20260508104432 | 1 | 217 | 0.0 | 0.0 | 0.00 | 0.00 | 0.00 | 90 | 1011.5 |
| 20260508104348 | 1 | 217 | 0.0 | 0.0 | 0.00 | 0.00 | 0.00 | 90 | 1011.5 |
| 20260508104258 | 0 | 217 | 0.0 | 0.0 | 0.00 | 0.00 | 0.00 | 90 | 1011.5 |
| 20260508104147 | 1 | 217 | 0.0 | 0.0 | 0.00 | 0.00 | 0.00 | 90 | 1011.5 |
| 20260508104059 | 0 | 217 | 0.0 | 0.0 | 0.00 | 0.00 | 0.00 | 90 | 1011.6 |
| 20260508104005 | 0 | 217 | 0.0 | 0.0 | 0.00 | 0.00 | 0.00 | 90 | 1011.4 |
| 20260508103918 | 0 | 217 | 0.0 | 0.0 | 0.00 | 0.00 | 0.00 | 90 | 1011.4 |
| 20260508103828 | 0 | 217 | 0.0 | 0.0 | 0.00 | 0.00 | 0.00 | 90 | 1011.4 |
| 20260508103719 | 0 | 217 | 0.0 | 0.0 | 0.00 | 0.00 | 0.00 | 90 | 1011.3 |
| 20260508103608 | 0 | 217 | 0.0 | 0.0 | 0.00 | 0.00 | 0.00 | 90 | 1011.3 |
| 20260508103453 | 0 | 217 | 0.0 | 0.0 | 0.00 | 0.00 | 0.00 | 90 | 1011.3 |
| 20260508103404 | 0 | 217 | 0.0 | 0.0 | 0.00 | 0.00 | 0.00 | 90 | 1011.4 |
| 20260508103232 | 0 | 217 | 0.0 | 0.0 | 0.00 | 0.00 | 0.00 | 90 | 1011.3 |
| 20260508103126 | 0 | 217 | 0.0 | 0.0 | 0.00 | 0.00 | 0.00 | 90 | 1011.3 |
| 20260508103032 | 0 | 217 | 0.0 | 0.0 | 0.00 | 0.00 | 0.00 | 90 | 1011.3 |
| 20260508102943 | 0 | 217 | 0.0 | 0.0 | 0.00 | 0.00 | 0.00 | 89 | 1011.3 |
| 20260508102834 | 0 | 217 | 0.0 | 0.0 | 0.00 | 0.00 | 0.00 | 89 | 1011.4 |
| 20260508102725 | 0 | 217 | 0.0 | 0.0 | 0.00 | 0.00 | 0.00 | 89 | 1011.4 |
| 20260508102636 | 0 | 217 | 0.0 | 0.0 | 0.00 | 0.00 | 0.00 | 89 | 1011.3 |
| 20260508102542 | 0 | 217 | 0.0 | 0.0 | 0.00 | 0.00 | 0.00 | 88 | 1011.4 |
| 20260508102435 | 0 | 217 | 0.0 | 0.0 | 0.00 | 0.00 | 0.00 | 88 | 1011.3 |
| 20260508102327 | 0 | 217 | 0.0 | 0.0 | 0.00 | 0.00 | 0.00 | 88 | 1011.4 |
| 20260508102242 | 0 | 217 | 0.0 | 0.0 | 0.00 | 0.00 | 0.00 | 89 | 1011.3 |
| 20260508102133 | 1 | 217 | 0.0 | 0.0 | 0.00 | 0.00 | 0.00 | 88 | 1011.3 |
| 20260508102038 | 1 | 217 | 0.0 | 0.0 | 0.00 | 0.00 | 0.00 | 88 | 1011.3 |
| 20260508101930 | 1 | 217 | 0.0 | 0.0 | 0.00 | 0.00 | 0.00 | 89 | 1011.3 |
| 20260508101843 | 1 | 217 | 0.0 | 0.0 | 0.00 | 0.00 | 0.00 | 89 | 1011.2 |
| 20260508101735 | 1 | 217 | 0.0 | 0.0 | 0.00 | 0.00 | 0.00 | 89 | 1011.3 |